| time (UTC) | temp F | wind direction | speed knots | gust knots | rain 1hr in | rain 24hr in | rain mn in | humidity % | barometer mb |
| 20260505093126 | 46 | 0 | 0.0 | 0.0 | 0.00 | 0.00 | 0.00 | 79 | 1002.7 |
| 20260505093005 | 46 | 0 | 0.0 | 0.0 | 0.00 | 0.00 | 0.00 | 79 | 1002.6 |
| 20260505092905 | 46 | 0 | 0.0 | 0.9 | 0.00 | 0.00 | 0.00 | 78 | 1002.6 |
| 20260505092805 | 46 | 0 | 0.0 | 0.9 | 0.00 | 0.00 | 0.00 | 78 | 1002.5 |
| 20260505092705 | 46 | 0 | 0.0 | 0.9 | 0.00 | 0.00 | 0.00 | 78 | 1002.4 |
| 20260505092605 | 46 | 0 | 0.0 | 0.9 | 0.00 | 0.00 | 0.00 | 78 | 1002.4 |
| 20260505092527 | 46 | 0 | 0.0 | 0.9 | 0.00 | 0.00 | 0.00 | 78 | 1002.3 |
| 20260505092405 | 46 | 0 | 0.0 | 0.9 | 0.00 | 0.00 | 0.00 | 78 | 1002.3 |
| 20260505092305 | 46 | 0 | 0.0 | 0.9 | 0.00 | 0.00 | 0.00 | 78 | 1002.4 |
| 20260505092226 | 46 | 0 | 0.0 | 0.9 | 0.00 | 0.00 | 0.00 | 78 | 1002.4 |
| 20260505092105 | 46 | 0 | 0.0 | 0.9 | 0.00 | 0.00 | 0.00 | 78 | 1002.4 |
| 20260505092005 | 46 | 0 | 0.0 | 0.9 | 0.00 | 0.00 | 0.00 | 78 | 1002.5 |
| 20260505091926 | 46 | 0 | 0.0 | 0.9 | 0.00 | 0.00 | 0.00 | 78 | 1002.5 |
| 20260505091805 | 46 | 0 | 0.0 | 0.9 | 0.00 | 0.00 | 0.00 | 78 | 1002.5 |
| 20260505091705 | 46 | 0 | 0.0 | 0.9 | 0.00 | 0.00 | 0.00 | 78 | 1002.5 |
| 20260505091605 | 47 | 0 | 0.0 | 0.9 | 0.00 | 0.00 | 0.00 | 78 | 1002.5 |
| 20260505091526 | 47 | 0 | 0.0 | 0.9 | 0.00 | 0.00 | 0.00 | 78 | 1002.5 |
| 20260505091405 | 47 | 0 | 0.0 | 0.9 | 0.00 | 0.00 | 0.00 | 78 | 1002.4 |
| 20260505091305 | 47 | 0 | 0.0 | 1.7 | 0.00 | 0.00 | 0.00 | 78 | 1002.4 |
| 20260505091226 | 47 | 0 | 0.0 | 1.7 | 0.00 | 0.00 | 0.00 | 78 | 1002.4 |
| 20260505091105 | 47 | 0 | 0.0 | 1.7 | 0.00 | 0.00 | 0.00 | 78 | 1002.4 |
| 20260505091005 | 47 | 0 | 0.0 | 1.7 | 0.00 | 0.00 | 0.00 | 78 | 1002.4 |
| 20260505090905 | 47 | 0 | 0.0 | 1.7 | 0.00 | 0.00 | 0.00 | 78 | 1002.4 |
| 20260505090805 | 47 | 0 | 0.0 | 1.7 | 0.00 | 0.00 | 0.00 | 78 | 1002.4 |
| 20260505090705 | 47 | 0 | 0.0 | 1.7 | 0.00 | 0.00 | 0.00 | 78 | 1002.2 |
| 20260505090605 | 47 | 0 | 0.0 | 1.7 | 0.00 | 0.00 | 0.00 | 78 | 1002.2 |
| 20260505090526 | 47 | 0 | 0.0 | 1.7 | 0.00 | 0.00 | 0.00 | 78 | 1002.1 |
| 20260505090426 | 47 | 0 | 0.0 | 1.7 | 0.00 | 0.00 | 0.00 | 78 | 1002.1 |
| 20260505090305 | 46 | 0 | 0.0 | 1.7 | 0.00 | 0.00 | 0.00 | 79 | 1002.1 |
| 20260505090205 | 46 | 0 | 0.0 | 1.7 | 0.00 | 0.00 | 0.00 | 79 | 1002.1 |
| 20260505090126 | 46 | 0 | 0.0 | 1.7 | 0.00 | 0.00 | 0.00 | 79 | 1002.1 |
| 20260505090005 | 46 | 0 | 0.0 | 1.7 | 0.00 | 0.00 | 0.00 | 79 | 1002.1 |
| 20260505085905 | 46 | 0 | 0.0 | 1.7 | 0.00 | 0.00 | 0.00 | 79 | 1001.9 |
| 20260505085805 | 46 | 0 | 0.0 | 1.7 | 0.00 | 0.00 | 0.00 | 79 | 1001.9 |
| 20260505085705 | 46 | 0 | 0.0 | 1.7 | 0.00 | 0.00 | 0.00 | 79 | 1001.9 |
| 20260505085605 | 46 | 0 | 0.0 | 1.7 | 0.00 | 0.00 | 0.00 | 80 | 1001.9 |
| 20260505085505 | 46 | 0 | 0.0 | 1.7 | 0.00 | 0.00 | 0.00 | 80 | 1001.9 |
| 20260505085405 | 46 | 0 | 0.0 | 1.7 | 0.00 | 0.00 | 0.00 | 80 | 1001.8 |
| 20260505085305 | 46 | 0 | 0.0 | 1.7 | 0.00 | 0.00 | 0.00 | 80 | 1001.8 |
| 20260505085205 | 46 | 0 | 0.0 | 1.7 | 0.00 | 0.00 | 0.00 | 80 | 1001.8 |
| 20260505085105 | 46 | 0 | 0.0 | 1.7 | 0.00 | 0.00 | 0.00 | 80 | 1001.7 |
| 20260505085005 | 46 | 0 | 0.0 | 1.7 | 0.00 | 0.00 | 0.00 | 81 | 1001.7 |
| 20260505084905 | 46 | 0 | 0.0 | 1.7 | 0.00 | 0.00 | 0.00 | 81 | 1001.6 |
| 20260505084805 | 46 | 0 | 0.0 | 1.7 | 0.00 | 0.00 | 0.00 | 81 | 1001.6 |
| 20260505084705 | 46 | 0 | 0.0 | 1.7 | 0.00 | 0.00 | 0.00 | 82 | 1001.5 |
| 20260505084605 | 46 | 0 | 0.0 | 1.7 | 0.00 | 0.00 | 0.00 | 82 | 1001.5 |
| 20260505084505 | 46 | 0 | 0.0 | 1.7 | 0.00 | 0.00 | 0.00 | 83 | 1001.5 |
| 20260505084405 | 46 | 0 | 0.0 | 1.7 | 0.00 | 0.00 | 0.00 | 83 | 1001.5 |
| 20260505084305 | 46 | 0 | 0.0 | 1.7 | 0.00 | 0.00 | 0.00 | 83 | 1001.5 |
| 20260505084205 | 46 | 0 | 0.0 | 1.7 | 0.00 | 0.00 | 0.00 | 83 | 1001.6 |
| 20260505084105 | 46 | 0 | 0.0 | 1.7 | 0.00 | 0.00 | 0.00 | 83 | 1001.6 |
| 20260505084005 | 46 | 0 | 0.0 | 1.7 | 0.00 | 0.00 | 0.00 | 83 | 1001.6 |
| 20260505083926 | 46 | 0 | 0.0 | 1.7 | 0.00 | 0.00 | 0.00 | 83 | 1001.5 |
| 20260505083805 | 46 | 0 | 0.0 | 1.7 | 0.00 | 0.00 | 0.00 | 83 | 1001.5 |
| 20260505083705 | 46 | 0 | 0.0 | 1.7 | 0.00 | 0.00 | 0.00 | 83 | 1001.5 |
| 20260505083605 | 46 | 0 | 0.0 | 1.7 | 0.00 | 0.00 | 0.00 | 83 | 1001.6 |
| 20260505083526 | 46 | 0 | 0.0 | 0.9 | 0.00 | 0.00 | 0.00 | 83 | 1001.6 |
| 20260505083426 | 46 | 0 | 0.0 | 0.9 | 0.00 | 0.00 | 0.00 | 83 | 1001.5 |
| 20260505083305 | 46 | 287 | 0.9 | 6.1 | 0.00 | 0.00 | 0.00 | 83 | 1001.4 |
| 20260505083205 | 46 | 277 | 0.9 | 6.1 | 0.00 | 0.00 | 0.00 | 83 | 1001.4 |
| 20260505083105 | 46 | 283 | 0.9 | 6.1 | 0.00 | 0.00 | 0.00 | 82 | 1001.4 |
| 20260505083005 | 46 | 281 | 0.9 | 6.1 | 0.00 | 0.00 | 0.00 | 82 | 1001.4 |
| 20260505082926 | 46 | 280 | 0.9 | 6.1 | 0.00 | 0.00 | 0.00 | 82 | 1001.3 |
| 20260505082805 | 46 | 279 | 1.7 | 8.7 | 0.00 | 0.00 | 0.00 | 82 | 1001.3 |
| 20260505082705 | 46 | 285 | 1.7 | 8.7 | 0.00 | 0.00 | 0.00 | 82 | 1001.3 |
| 20260505082605 | 46 | 286 | 1.7 | 8.7 | 0.00 | 0.00 | 0.00 | 82 | 1001.2 |
| 20260505082505 | 46 | 283 | 2.6 | 8.7 | 0.00 | 0.00 | 0.00 | 81 | 1001.2 |
| 20260505082405 | 46 | 278 | 2.6 | 8.7 | 0.00 | 0.00 | 0.00 | 81 | 1001.2 |
| 20260505082326 | 47 | 279 | 2.6 | 8.7 | 0.00 | 0.00 | 0.00 | 81 | 1001.2 |
| 20260505082205 | 47 | 280 | 2.6 | 8.7 | 0.00 | 0.00 | 0.00 | 80 | 1001.2 |
| 20260505082105 | 47 | 279 | 2.6 | 8.7 | 0.00 | 0.00 | 0.00 | 80 | 1001.2 |
| 20260505082005 | 47 | 280 | 2.6 | 8.7 | 0.00 | 0.00 | 0.00 | 79 | 1001.2 |
| 20260505081926 | 47 | 281 | 2.6 | 8.7 | 0.00 | 0.00 | 0.00 | 79 | 1001.2 |
| 20260505081805 | 47 | 279 | 2.6 | 7.8 | 0.00 | 0.00 | 0.00 | 79 | 1001.1 |
| 20260505081704 | 48 | 278 | 2.6 | 7.8 | 0.00 | 0.00 | 0.00 | 78 | 1001.1 |
| 20260505081605 | 48 | 278 | 2.6 | 7.8 | 0.00 | 0.00 | 0.00 | 78 | 1001.0 |
| 20260505081505 | 48 | 278 | 2.6 | 7.8 | 0.00 | 0.00 | 0.00 | 78 | 1000.9 |
| 20260505081405 | 48 | 283 | 2.6 | 7.8 | 0.00 | 0.00 | 0.00 | 77 | 1000.9 |
| 20260505081305 | 48 | 282 | 2.6 | 7.8 | 0.00 | 0.00 | 0.00 | 77 | 1000.8 |
| 20260505081205 | 48 | 282 | 2.6 | 7.8 | 0.00 | 0.00 | 0.00 | 77 | 1000.8 |
| 20260505081105 | 48 | 280 | 1.7 | 7.8 | 0.00 | 0.00 | 0.00 | 77 | 1000.8 |
| 20260505081005 | 48 | 280 | 1.7 | 7.8 | 0.00 | 0.00 | 0.00 | 76 | 1000.8 |
| 20260505080905 | 48 | 286 | 1.7 | 7.8 | 0.00 | 0.00 | 0.00 | 76 | 1000.8 |
| 20260505080805 | 48 | 288 | 1.7 | 7.8 | 0.00 | 0.00 | 0.00 | 76 | 1000.8 |
| 20260505080705 | 48 | 285 | 1.7 | 4.3 | 0.00 | 0.00 | 0.00 | 76 | 1000.7 |
| 20260505080605 | 48 | 285 | 1.7 | 5.2 | 0.00 | 0.00 | 0.00 | 75 | 1000.7 |
| 20260505080505 | 48 | 284 | 1.7 | 5.2 | 0.00 | 0.00 | 0.00 | 75 | 1000.6 |
| 20260505080426 | 48 | 283 | 1.7 | 5.2 | 0.00 | 0.00 | 0.00 | 75 | 1000.6 |
| 20260505080305 | 49 | 278 | 1.7 | 5.2 | 0.00 | 0.00 | 0.00 | 75 | 1000.5 |
| 20260505080205 | 49 | 276 | 1.7 | 5.2 | 0.00 | 0.00 | 0.00 | 75 | 1000.5 |
| 20260505080105 | 49 | 275 | 1.7 | 5.2 | 0.00 | 0.00 | 0.00 | 74 | 1000.5 |
| 20260505080005 | 49 | 276 | 1.7 | 5.2 | 0.00 | 0.00 | 0.00 | 74 | 1000.5 |
| 20260505075926 | 49 | 272 | 1.7 | 5.2 | 0.00 | 0.00 | 0.00 | 74 | 1000.5 |
| 20260505075805 | 49 | 268 | 1.7 | 5.2 | 0.00 | 0.00 | 0.00 | 74 | 1000.5 |
| 20260505075705 | 49 | 264 | 1.7 | 5.2 | 0.00 | 0.00 | 0.00 | 74 | 1000.6 |
| 20260505075605 | 49 | 260 | 1.7 | 5.2 | 0.00 | 0.00 | 0.00 | 73 | 1000.6 |
| 20260505075505 | 49 | 262 | 0.9 | 5.2 | 0.00 | 0.00 | 0.00 | 73 | 1000.5 |
| 20260505075405 | 50 | 262 | 0.9 | 4.3 | 0.00 | 0.00 | 0.00 | 72 | 1000.5 |
| 20260505075305 | 50 | 262 | 0.9 | 4.3 | 0.00 | 0.00 | 0.00 | 72 | 1000.5 |
| 20260505075205 | 50 | 262 | 0.9 | 4.3 | 0.00 | 0.00 | 0.00 | 72 | 1000.5 |
| 20260505075105 | 50 | 260 | 0.9 | 4.3 | 0.00 | 0.00 | 0.00 | 72 | 1000.5 |
| 20260505075004 | 50 | 0 | 0.0 | 4.3 | 0.00 | 0.00 | 0.00 | 71 | 1000.4 |
| 20260505074905 | 50 | 0 | 0.0 | 1.7 | 0.00 | 0.00 | 0.00 | 71 | 1000.4 |
| 20260505074806 | 50 | 0 | 0.0 | 1.7 | 0.00 | 0.00 | 0.00 | 70 | 1000.4 |
| 20260505074705 | 50 | 0 | 0.0 | 1.7 | 0.00 | 0.00 | 0.00 | 70 | 1000.3 |
| 20260505074605 | 50 | 0 | 0.0 | 1.7 | 0.00 | 0.00 | 0.00 | 70 | 1000.3 |
| 20260505074505 | 50 | 0 | 0.0 | 1.7 | 0.00 | 0.00 | 0.00 | 70 | 1000.3 |
| 20260505074405 | 50 | 0 | 0.0 | 1.7 | 0.00 | 0.00 | 0.00 | 69 | 1000.3 |
| 20260505074305 | 50 | 0 | 0.0 | 1.7 | 0.00 | 0.00 | 0.00 | 68 | 1000.3 |
| 20260505074226 | 51 | 0 | 0.0 | 1.7 | 0.00 | 0.00 | 0.00 | 68 | 1000.3 |
| 20260505074105 | 51 | 0 | 0.0 | 1.7 | 0.00 | 0.00 | 0.00 | 68 | 1000.3 |
| 20260505074005 | 51 | 0 | 0.0 | 1.7 | 0.00 | 0.00 | 0.00 | 67 | 1000.3 |
| 20260505073926 | 51 | 0 | 0.0 | 1.7 | 0.00 | 0.00 | 0.00 | 67 | 1000.3 |
| 20260505073805 | 51 | 278 | 0.9 | 1.7 | 0.00 | 0.00 | 0.00 | 67 | 1000.3 |
| 20260505073705 | 51 | 277 | 0.9 | 1.7 | 0.00 | 0.00 | 0.00 | 67 | 1000.2 |
| 20260505073605 | 51 | 272 | 0.9 | 2.6 | 0.00 | 0.00 | 0.00 | 67 | 1000.2 |
| 20260505073505 | 51 | 271 | 0.9 | 2.6 | 0.00 | 0.00 | 0.00 | 66 | 1000.2 |
| 20260505073405 | 51 | 275 | 0.9 | 2.6 | 0.00 | 0.00 | 0.00 | 66 | 1000.1 |
| 20260505073305 | 51 | 276 | 0.9 | 2.6 | 0.00 | 0.00 | 0.00 | 66 | 1000.1 |
| 20260505073226 | 51 | 274 | 0.9 | 2.6 | 0.00 | 0.00 | 0.00 | 66 | 1000.2 |
| 20260505073105 | 51 | 274 | 0.9 | 2.6 | 0.00 | 0.00 | 0.00 | 66 | 1000.2 |
| 20260505073005 | 52 | 268 | 0.9 | 3.5 | 0.00 | 0.00 | 0.00 | 65 | 1000.2 |
| 20260505072905 | 52 | 269 | 0.9 | 3.5 | 0.00 | 0.00 | 0.00 | 65 | 1000.2 |
| 20260505072826 | 52 | 272 | 0.9 | 3.5 | 0.00 | 0.00 | 0.00 | 65 | 1000.2 |
| 20260505072705 | 52 | 278 | 0.9 | 7.8 | 0.00 | 0.00 | 0.00 | 65 | 1000.2 |
| 20260505072606 | 52 | 280 | 1.7 | 7.8 | 0.00 | 0.00 | 0.00 | 64 | 1000.2 |
| 20260505072526 | 52 | 282 | 1.7 | 7.8 | 0.00 | 0.00 | 0.00 | 64 | 1000.2 |
| 20260505072404 | 52 | 281 | 1.7 | 7.8 | 0.00 | 0.00 | 0.00 | 64 | 1000.2 |
| 20260505072305 | 52 | 280 | 1.7 | 7.8 | 0.00 | 0.00 | 0.00 | 64 | 1000.2 |
| 20260505072226 | 52 | 281 | 1.7 | 7.8 | 0.00 | 0.00 | 0.00 | 63 | 1000.2 |
| 20260505072105 | 52 | 281 | 1.7 | 7.8 | 0.00 | 0.00 | 0.00 | 63 | 1000.2 |
| 20260505072005 | 52 | 284 | 1.7 | 7.8 | 0.00 | 0.00 | 0.00 | 62 | 1000.2 |
| 20260505071905 | 52 | 286 | 1.7 | 7.8 | 0.00 | 0.00 | 0.00 | 62 | 1000.2 |
| 20260505071805 | 53 | 287 | 1.7 | 7.8 | 0.00 | 0.00 | 0.00 | 62 | 1000.1 |
| 20260505071705 | 53 | 285 | 1.7 | 7.0 | 0.00 | 0.00 | 0.00 | 62 | 1000.1 |
| 20260505071605 | 53 | 285 | 1.7 | 7.0 | 0.00 | 0.00 | 0.00 | 62 | 1000.2 |
| 20260505071505 | 53 | 283 | 1.7 | 7.0 | 0.00 | 0.00 | 0.00 | 61 | 1000.2 |
| 20260505071405 | 53 | 283 | 1.7 | 6.1 | 0.00 | 0.00 | 0.00 | 61 | 1000.1 |
| 20260505071305 | 53 | 284 | 1.7 | 5.2 | 0.00 | 0.00 | 0.00 | 61 | 1000.1 |
| 20260505071226 | 53 | 285 | 1.7 | 5.2 | 0.00 | 0.00 | 0.00 | 61 | 1000.1 |
| 20260505071105 | 53 | 286 | 1.7 | 5.2 | 0.00 | 0.00 | 0.00 | 60 | 1000.1 |
| 20260505071005 | 53 | 287 | 1.7 | 5.2 | 0.00 | 0.00 | 0.00 | 60 | 1000.1 |
| 20260505070926 | 53 | 287 | 1.7 | 5.2 | 0.00 | 0.00 | 0.00 | 60 | 1000.0 |
| 20260505070805 | 53 | 291 | 1.7 | 5.2 | 0.00 | 0.00 | 0.00 | 59 | 1000.0 |
| 20260505070705 | 53 | 298 | 1.7 | 5.2 | 0.00 | 0.00 | 0.00 | 59 | 1000.0 |
| 20260505070626 | 53 | 298 | 1.7 | 5.2 | 0.00 | 0.00 | 0.00 | 59 | 1000.0 |
| 20260505070505 | 54 | 296 | 1.7 | 5.2 | 0.00 | 0.00 | 0.00 | 59 | 1000.0 |
| 20260505070405 | 54 | 296 | 1.7 | 7.0 | 0.00 | 0.00 | 0.00 | 58 | 1000.0 |
| 20260505070326 | 54 | 294 | 1.7 | 7.0 | 0.00 | 0.00 | 0.00 | 58 | 1000.0 |
| 20260505070226 | 54 | 294 | 2.6 | 7.8 | 0.00 | 0.00 | 0.00 | 58 | 1000.0 |
| 20260505070105 | 54 | 293 | 2.6 | 7.8 | 0.00 | 0.00 | 0.00 | 57 | 1000.0 |
| 20260505070005 | 54 | 291 | 2.6 | 8.7 | 0.00 | 0.00 | 0.00 | 57 | 1000.1 |
| 20260505065905 | 54 | 292 | 3.5 | 8.7 | 0.00 | 0.00 | 0.00 | 57 | 1000.1 |
| 20260505065826 | 54 | 292 | 3.5 | 8.7 | 0.00 | 0.00 | 0.00 | 57 | 1000.0 |
| 20260505065726 | 54 | 289 | 3.5 | 8.7 | 0.00 | 0.00 | 0.00 | 58 | 1000.0 |
| 20260505065605 | 54 | 289 | 3.5 | 11.3 | 0.00 | 0.00 | 0.00 | 56 | 1000.1 |
| 20260505065505 | 54 | 291 | 3.5 | 11.3 | 0.00 | 0.00 | 0.00 | 56 | 1000.2 |
| 20260505065405 | 54 | 291 | 3.5 | 11.3 | 0.00 | 0.00 | 0.00 | 56 | 1000.2 |
| 20260505065305 | 54 | 293 | 3.5 | 11.3 | 0.00 | 0.00 | 0.00 | 56 | 1000.0 |
| 20260505065205 | 54 | 291 | 3.5 | 11.3 | 0.00 | 0.00 | 0.00 | 56 | 1000.0 |
| 20260505065105 | 54 | 293 | 3.5 | 11.3 | 0.00 | 0.00 | 0.00 | 56 | 1000.2 |
| 20260505065005 | 54 | 293 | 3.5 | 11.3 | 0.00 | 0.00 | 0.00 | 56 | 1000.1 |
| 20260505064905 | 54 | 293 | 2.6 | 11.3 | 0.00 | 0.00 | 0.00 | 56 | 1000.1 |
| 20260505064805 | 54 | 291 | 2.6 | 11.3 | 0.00 | 0.00 | 0.00 | 56 | 1000.1 |
| 20260505064705 | 54 | 289 | 2.6 | 11.3 | 0.00 | 0.00 | 0.00 | 56 | 1000.1 |
| 20260505064625 | 54 | 291 | 2.6 | 11.3 | 0.00 | 0.00 | 0.00 | 56 | 1000.3 |
| 20260505064505 | 54 | 291 | 2.6 | 9.6 | 0.00 | 0.00 | 0.00 | 57 | 1000.3 |
| 20260505064426 | 55 | 291 | 2.6 | 9.6 | 0.00 | 0.00 | 0.00 | 57 | 1000.3 |
| 20260505064305 | 55 | 291 | 2.6 | 9.6 | 0.00 | 0.00 | 0.00 | 57 | 1000.4 |
| 20260505064205 | 55 | 293 | 3.5 | 9.6 | 0.00 | 0.00 | 0.00 | 56 | 1000.4 |
| 20260505064104 | 55 | 292 | 2.6 | 11.3 | 0.00 | 0.00 | 0.00 | 56 | 1000.4 |
| 20260505064026 | 55 | 293 | 2.6 | 11.3 | 0.00 | 0.00 | 0.00 | 57 | 1000.5 |
| 20260505063905 | 55 | 291 | 2.6 | 11.3 | 0.00 | 0.00 | 0.00 | 56 | 1000.5 |
| 20260505063805 | 55 | 291 | 2.6 | 11.3 | 0.00 | 0.00 | 0.00 | 56 | 1000.3 |
| 20260505063704 | 55 | 293 | 2.6 | 11.3 | 0.00 | 0.00 | 0.00 | 55 | 1000.3 |
| 20260505063605 | 55 | 294 | 2.6 | 11.3 | 0.00 | 0.00 | 0.00 | 55 | 1000.3 |
| 20260505063506 | 55 | 294 | 2.6 | 11.3 | 0.00 | 0.00 | 0.00 | 55 | 1000.2 |
| 20260505063426 | 55 | 294 | 2.6 | 11.3 | 0.00 | 0.00 | 0.00 | 54 | 1000.2 |
| 20260505063305 | 55 | 293 | 2.6 | 11.3 | 0.00 | 0.00 | 0.00 | 54 | 1000.0 |
| 20260505063225 | 55 | 291 | 2.6 | 11.3 | 0.00 | 0.00 | 0.00 | 54 | 1000.0 |
| 20260505063104 | 55 | 289 | 2.6 | 10.4 | 0.00 | 0.00 | 0.00 | 54 | 1000.0 |
| 20260505063005 | 55 | 288 | 2.6 | 10.4 | 0.00 | 0.00 | 0.00 | 54 | 1000.0 |
| 20260505062926 | 55 | 286 | 2.6 | 10.4 | 0.00 | 0.00 | 0.00 | 54 | 1000.0 |
| 20260505062804 | 55 | 293 | 2.6 | 10.4 | 0.00 | 0.00 | 0.00 | 54 | 999.9 |
| 20260505062725 | 55 | 293 | 2.6 | 10.4 | 0.00 | 0.00 | 0.00 | 54 | 999.8 |
| 20260505062605 | 56 | 290 | 2.6 | 10.4 | 0.00 | 0.00 | 0.00 | 53 | 999.8 |
| 20260505062505 | 56 | 290 | 2.6 | 10.4 | 0.00 | 0.00 | 0.00 | 54 | 999.8 |
| 20260505062405 | 56 | 288 | 2.6 | 7.0 | 0.00 | 0.00 | 0.00 | 55 | 999.9 |
| 20260505062325 | 56 | 288 | 2.6 | 7.0 | 0.00 | 0.00 | 0.00 | 54 | 999.9 |
| 20260505062205 | 56 | 289 | 2.6 | 7.0 | 0.00 | 0.00 | 0.00 | 53 | 999.8 |
| 20260505062126 | 56 | 289 | 2.6 | 7.0 | 0.00 | 0.00 | 0.00 | 53 | 999.8 |
| 20260505062005 | 56 | 288 | 2.6 | 7.0 | 0.00 | 0.00 | 0.00 | 53 | 999.8 |
| 20260505061926 | 56 | 289 | 2.6 | 7.0 | 0.00 | 0.00 | 0.00 | 53 | 999.8 |
| 20260505061804 | 56 | 287 | 2.6 | 7.0 | 0.00 | 0.00 | 0.00 | 53 | 999.9 |
| 20260505061726 | 56 | 287 | 2.6 | 7.0 | 0.00 | 0.00 | 0.00 | 53 | 999.9 |
| 20260505061604 | 56 | 289 | 1.7 | 7.0 | 0.00 | 0.00 | 0.00 | 53 | 999.9 |
| 20260505061505 | 56 | 284 | 1.7 | 5.2 | 0.00 | 0.00 | 0.00 | 53 | 999.8 |
| 20260505061405 | 56 | 287 | 1.7 | 5.2 | 0.00 | 0.00 | 0.00 | 53 | 999.8 |
| 20260505061305 | 56 | 289 | 2.6 | 7.0 | 0.00 | 0.00 | 0.00 | 53 | 999.8 |
| 20260505061204 | 56 | 289 | 2.6 | 7.0 | 0.00 | 0.00 | 0.00 | 54 | 999.7 |
| 20260505061105 | 56 | 289 | 2.6 | 7.0 | 0.00 | 0.00 | 0.00 | 53 | 999.7 |
| 20260505061005 | 56 | 290 | 2.6 | 7.0 | 0.00 | 0.00 | 0.00 | 53 | 999.7 |
| 20260505060905 | 56 | 288 | 2.6 | 7.0 | 0.00 | 0.00 | 0.00 | 53 | 999.8 |
| 20260505060805 | 56 | 287 | 2.6 | 7.0 | 0.00 | 0.00 | 0.00 | 54 | 999.8 |
| 20260505060705 | 56 | 286 | 2.6 | 7.0 | 0.00 | 0.00 | 0.00 | 54 | 999.8 |
| 20260505060605 | 56 | 285 | 2.6 | 7.8 | 0.00 | 0.00 | 0.00 | 54 | 999.8 |
| 20260505060505 | 56 | 288 | 2.6 | 7.8 | 0.00 | 0.00 | 0.00 | 53 | 999.8 |
| 20260505060405 | 56 | 287 | 2.6 | 7.8 | 0.00 | 0.00 | 0.00 | 54 | 999.9 |
| 20260505060305 | 56 | 287 | 2.6 | 7.8 | 0.00 | 0.00 | 0.00 | 53 | 999.9 |
| 20260505060226 | 56 | 288 | 2.6 | 7.8 | 0.00 | 0.00 | 0.00 | 53 | 999.8 |
| 20260505060105 | 56 | 286 | 2.6 | 7.8 | 0.00 | 0.00 | 0.00 | 53 | 999.8 |
| 20260505060005 | 56 | 290 | 2.6 | 7.8 | 0.00 | 0.00 | 0.00 | 53 | 999.8 |
| 20260505055905 | 56 | 294 | 2.6 | 7.8 | 0.00 | 0.00 | 0.00 | 53 | 999.8 |
| 20260505055805 | 56 | 296 | 2.6 | 7.8 | 0.00 | 0.00 | 0.00 | 52 | 999.8 |
| 20260505055704 | 56 | 300 | 1.7 | 7.8 | 0.00 | 0.00 | 0.00 | 52 | 999.7 |
| 20260505055605 | 56 | 302 | 1.7 | 6.1 | 0.00 | 0.00 | 0.00 | 53 | 999.7 |
| 20260505055505 | 56 | 303 | 1.7 | 6.1 | 0.00 | 0.00 | 0.00 | 53 | 999.7 |
| 20260505055404 | 56 | 308 | 1.7 | 5.2 | 0.00 | 0.00 | 0.00 | 52 | 999.6 |
| 20260505055325 | 56 | 305 | 1.7 | 5.2 | 0.00 | 0.00 | 0.00 | 52 | 999.6 |
| 20260505055226 | 56 | 304 | 1.7 | 7.8 | 0.00 | 0.00 | 0.00 | 52 | 999.6 |
| 20260505055105 | 56 | 306 | 1.7 | 7.8 | 0.00 | 0.00 | 0.00 | 52 | 999.5 |
| 20260505055004 | 57 | 307 | 1.7 | 7.8 | 0.00 | 0.00 | 0.00 | 53 | 999.5 |
| 20260505054926 | 57 | 300 | 1.7 | 7.8 | 0.00 | 0.00 | 0.00 | 52 | 999.4 |
| 20260505054805 | 57 | 300 | 1.7 | 7.8 | 0.00 | 0.00 | 0.00 | 52 | 999.5 |
| 20260505054705 | 57 | 297 | 1.7 | 7.8 | 0.00 | 0.00 | 0.00 | 53 | 999.5 |
| 20260505054604 | 57 | 298 | 1.7 | 7.8 | 0.00 | 0.00 | 0.00 | 52 | 999.5 |
| 20260505054504 | 57 | 295 | 1.7 | 7.8 | 0.00 | 0.00 | 0.00 | 52 | 999.5 |
| 20260505054404 | 57 | 290 | 1.7 | 7.8 | 0.00 | 0.00 | 0.00 | 52 | 999.7 |
| 20260505054305 | 57 | 286 | 1.7 | 5.2 | 0.00 | 0.00 | 0.00 | 53 | 999.6 |
| 20260505054225 | 57 | 286 | 1.7 | 5.2 | 0.00 | 0.00 | 0.00 | 52 | 999.6 |
| 20260505054104 | 57 | 286 | 2.6 | 6.1 | 0.00 | 0.00 | 0.00 | 52 | 999.5 |
| 20260505054004 | 57 | 286 | 2.6 | 6.1 | 0.00 | 0.00 | 0.00 | 52 | 999.5 |
| 20260505053904 | 57 | 285 | 2.6 | 6.1 | 0.00 | 0.00 | 0.00 | 52 | 999.6 |
| 20260505053805 | 57 | 285 | 2.6 | 6.1 | 0.00 | 0.00 | 0.00 | 51 | 999.6 |
| 20260505053704 | 57 | 276 | 3.5 | 10.4 | 0.00 | 0.00 | 0.00 | 51 | 999.6 |
| 20260505053605 | 57 | 279 | 3.5 | 13.9 | 0.00 | 0.00 | 0.00 | 52 | 999.8 |
| 20260505053504 | 57 | 282 | 3.5 | 13.9 | 0.00 | 0.00 | 0.00 | 51 | 999.8 |
| 20260505053404 | 58 | 283 | 3.5 | 13.9 | 0.00 | 0.00 | 0.00 | 51 | 999.8 |
| 20260505053326 | 58 | 284 | 3.5 | 13.9 | 0.00 | 0.00 | 0.00 | 51 | 999.8 |
| 20260505053205 | 58 | 284 | 4.3 | 13.9 | 0.00 | 0.00 | 0.00 | 51 | 999.8 |
| 20260505053126 | 58 | 284 | 4.3 | 13.9 | 0.00 | 0.00 | 0.00 | 51 | 999.7 |
| 20260505053004 | 58 | 284 | 4.3 | 13.9 | 0.00 | 0.00 | 0.00 | 51 | 999.8 |
| 20260505052904 | 58 | 282 | 4.3 | 13.9 | 0.00 | 0.00 | 0.00 | 50 | 999.8 |
| 20260505052805 | 58 | 280 | 4.3 | 13.9 | 0.00 | 0.00 | 0.00 | 50 | 999.6 |
| 20260505052726 | 58 | 284 | 4.3 | 13.9 | 0.00 | 0.00 | 0.00 | 49 | 999.6 |
| 20260505052626 | 58 | 281 | 3.5 | 13.0 | 0.00 | 0.00 | 0.00 | 50 | 999.6 |
| 20260505052526 | 58 | 279 | 3.5 | 9.6 | 0.00 | 0.00 | 0.00 | 51 | 999.6 |
| 20260505052404 | 58 | 280 | 3.5 | 9.6 | 0.00 | 0.00 | 0.00 | 51 | 999.7 |
| 20260505052305 | 58 | 277 | 3.5 | 9.6 | 0.00 | 0.00 | 0.00 | 52 | 999.7 |
| 20260505052205 | 58 | 276 | 2.6 | 9.6 | 0.00 | 0.00 | 0.00 | 52 | 999.7 |
| 20260505052104 | 58 | 277 | 2.6 | 9.6 | 0.00 | 0.00 | 0.00 | 52 | 999.7 |
| 20260505052004 | 58 | 274 | 2.6 | 9.6 | 0.00 | 0.00 | 0.00 | 53 | 999.7 |
| 20260505051904 | 58 | 276 | 2.6 | 9.6 | 0.00 | 0.00 | 0.00 | 53 | 999.7 |
| 20260505051804 | 58 | 275 | 2.6 | 9.6 | 0.00 | 0.00 | 0.00 | 53 | 999.5 |
| 20260505051704 | 58 | 277 | 2.6 | 9.6 | 0.00 | 0.00 | 0.00 | 52 | 999.4 |
| 20260505051605 | 58 | 280 | 2.6 | 9.6 | 0.00 | 0.00 | 0.00 | 52 | 999.4 |
| 20260505051505 | 58 | 276 | 2.6 | 8.7 | 0.00 | 0.00 | 0.00 | 52 | 999.3 |
| 20260505051405 | 58 | 271 | 2.6 | 6.1 | 0.00 | 0.00 | 0.00 | 54 | 999.3 |
| 20260505051304 | 58 | 270 | 2.6 | 6.1 | 0.00 | 0.00 | 0.00 | 53 | 999.4 |
| 20260505051205 | 58 | 272 | 2.6 | 6.1 | 0.00 | 0.00 | 0.00 | 52 | 999.4 |
| 20260505051105 | 58 | 271 | 2.6 | 6.1 | 0.00 | 0.00 | 0.00 | 54 | 999.4 |
| 20260505051005 | 58 | 267 | 2.6 | 6.1 | 0.00 | 0.00 | 0.00 | 54 | 999.3 |
| 20260505050904 | 58 | 267 | 2.6 | 6.1 | 0.00 | 0.00 | 0.00 | 54 | 999.3 |
| 20260505050804 | 58 | 267 | 2.6 | 6.1 | 0.00 | 0.00 | 0.00 | 54 | 999.3 |
| 20260505050705 | 58 | 266 | 1.7 | 6.1 | 0.00 | 0.00 | 0.00 | 54 | 999.3 |
| 20260505050604 | 58 | 261 | 1.7 | 6.1 | 0.00 | 0.00 | 0.00 | 54 | 999.3 |
| 20260505050505 | 58 | 261 | 1.7 | 5.2 | 0.00 | 0.00 | 0.00 | 55 | 999.0 |
| 20260505050404 | 57 | 257 | 1.7 | 5.2 | 0.00 | 0.00 | 0.00 | 54 | 998.9 |
| 20260505050305 | 57 | 258 | 1.7 | 5.2 | 0.00 | 0.00 | 0.00 | 55 | 998.9 |
| 20260505050205 | 57 | 257 | 1.7 | 6.1 | 0.00 | 0.00 | 0.00 | 56 | 998.9 |
| 20260505050104 | 57 | 257 | 1.7 | 6.1 | 0.00 | 0.00 | 0.00 | 57 | 998.9 |
| 20260505041725 | 55 | 0 | 0.0 | 1.7 | 0.00 | 0.00 | 0.00 | 76 | 998.2 |
| 20260505041604 | 55 | 0 | 0.0 | 1.7 | 0.00 | 0.00 | 0.00 | 76 | 998.2 |
| 20260505041525 | 55 | 0 | 0.0 | 2.6 | 0.00 | 0.00 | 0.00 | 76 | 998.2 |
| 20260505041404 | 55 | 247 | 0.9 | 2.6 | 0.00 | 0.00 | 0.00 | 76 | 998.2 |
| 20260505041304 | 55 | 251 | 0.9 | 2.6 | 0.00 | 0.00 | 0.00 | 75 | 998.1 |
| 20260505041205 | 55 | 255 | 0.9 | 2.6 | 0.00 | 0.00 | 0.00 | 75 | 998.1 |
| 20260505041104 | 55 | 255 | 0.9 | 2.6 | 0.00 | 0.00 | 0.00 | 75 | 998.3 |
| 20260505041025 | 55 | 255 | 0.9 | 2.6 | 0.00 | 0.00 | 0.00 | 75 | 998.3 |
| 20260505040904 | 55 | 265 | 0.9 | 2.6 | 0.00 | 0.00 | 0.00 | 75 | 998.4 |
| 20260505040805 | 55 | 265 | 0.9 | 3.5 | 0.00 | 0.00 | 0.00 | 76 | 998.5 |
| 20260505040704 | 55 | 259 | 0.9 | 5.2 | 0.00 | 0.00 | 0.00 | 75 | 998.5 |
| 20260505040604 | 55 | 261 | 0.9 | 5.2 | 0.00 | 0.00 | 0.00 | 75 | 998.5 |
| 20260505040505 | 55 | 262 | 1.7 | 5.2 | 0.00 | 0.00 | 0.00 | 75 | 998.4 |
| 20260505040426 | 55 | 263 | 1.7 | 5.2 | 0.00 | 0.00 | 0.00 | 75 | 998.4 |
| 20260505040304 | 55 | 263 | 1.7 | 5.2 | 0.00 | 0.00 | 0.00 | 75 | 998.4 |
| 20260505040205 | 55 | 262 | 1.7 | 5.2 | 0.00 | 0.00 | 0.00 | 75 | 998.4 |
| 20260505040126 | 55 | 262 | 1.7 | 5.2 | 0.00 | 0.00 | 0.00 | 75 | 998.5 |
| 20260505040006 | 55 | 261 | 1.7 | 5.2 | 0.00 | 0.00 | 0.00 | 75 | 998.7 |
| 20260505035905 | 55 | 258 | 1.7 | 5.2 | 0.00 | 0.00 | 0.00 | 76 | 998.8 |
| 20260505035804 | 55 | 257 | 1.7 | 5.2 | 0.00 | 0.00 | 0.00 | 76 | 998.8 |
| 20260505035704 | 55 | 259 | 0.9 | 5.2 | 0.00 | 0.00 | 0.00 | 77 | 998.9 |
| 20260505035604 | 55 | 260 | 1.7 | 4.3 | 0.00 | 0.00 | 0.00 | 77 | 998.9 |
| 20260505035504 | 55 | 259 | 1.7 | 4.3 | 0.00 | 0.00 | 0.00 | 77 | 998.9 |
| 20260505035404 | 55 | 260 | 1.7 | 4.3 | 0.00 | 0.00 | 0.00 | 77 | 998.7 |
| 20260505035304 | 55 | 259 | 1.7 | 4.3 | 0.00 | 0.00 | 0.00 | 77 | 998.7 |
| 20260505035205 | 55 | 258 | 1.7 | 4.3 | 0.00 | 0.00 | 0.00 | 77 | 998.6 |
| 20260505035105 | 54 | 258 | 1.7 | 4.3 | 0.00 | 0.00 | 0.00 | 77 | 998.7 |
| 20260505035004 | 54 | 256 | 1.7 | 4.3 | 0.00 | 0.00 | 0.00 | 78 | 998.7 |
| 20260505034904 | 54 | 256 | 1.7 | 4.3 | 0.00 | 0.00 | 0.00 | 78 | 998.8 |
| 20260505034804 | 54 | 253 | 1.7 | 5.2 | 0.00 | 0.00 | 0.00 | 78 | 998.8 |
| 20260505034726 | 54 | 251 | 1.7 | 5.2 | 0.00 | 0.00 | 0.00 | 78 | 998.8 |
| 20260505034604 | 54 | 249 | 1.7 | 5.2 | 0.00 | 0.00 | 0.00 | 79 | 998.8 |
| 20260505034526 | 54 | 250 | 1.7 | 5.2 | 0.00 | 0.00 | 0.00 | 79 | 998.8 |
| 20260505034404 | 54 | 249 | 1.7 | 5.2 | 0.00 | 0.00 | 0.00 | 79 | 998.7 |
| 20260505034305 | 54 | 249 | 1.7 | 5.2 | 0.00 | 0.00 | 0.00 | 79 | 998.7 |
| 20260505034205 | 54 | 251 | 1.7 | 5.2 | 0.00 | 0.00 | 0.00 | 79 | 998.8 |
| 20260505034104 | 54 | 253 | 1.7 | 5.2 | 0.00 | 0.00 | 0.00 | 79 | 998.9 |
| 20260505034004 | 55 | 254 | 1.7 | 5.2 | 0.00 | 0.00 | 0.00 | 79 | 998.9 |
| 20260505033925 | 55 | 254 | 1.7 | 5.2 | 0.00 | 0.00 | 0.00 | 79 | 998.9 |
| 20260505033804 | 55 | 258 | 1.7 | 4.3 | 0.00 | 0.00 | 0.00 | 79 | 998.9 |
| 20260505033704 | 55 | 263 | 1.7 | 6.1 | 0.00 | 0.00 | 0.00 | 80 | 998.9 |
| 20260505033604 | 55 | 257 | 1.7 | 6.1 | 0.00 | 0.00 | 0.00 | 80 | 998.9 |
| 20260505033504 | 55 | 254 | 1.7 | 6.1 | 0.00 | 0.00 | 0.00 | 80 | 998.9 |
| 20260505033405 | 55 | 252 | 1.7 | 6.1 | 0.00 | 0.00 | 0.00 | 80 | 998.9 |
| 20260505033325 | 55 | 252 | 1.7 | 6.1 | 0.00 | 0.00 | 0.00 | 80 | 998.9 |
| 20260505033225 | 55 | 253 | 1.7 | 6.1 | 0.00 | 0.00 | 0.00 | 80 | 998.9 |
| 20260505033105 | 55 | 250 | 2.6 | 7.0 | 0.00 | 0.00 | 0.00 | 80 | 999.0 |
| 20260505033026 | 55 | 249 | 2.6 | 7.8 | 0.00 | 0.00 | 0.00 | 80 | 999.0 |
| 20260505032905 | 55 | 250 | 3.5 | 7.8 | 0.00 | 0.00 | 0.00 | 81 | 998.9 |
| 20260505032804 | 55 | 249 | 3.5 | 7.8 | 0.00 | 0.00 | 0.00 | 80 | 998.9 |
| 20260505032704 | 55 | 248 | 3.5 | 7.8 | 0.00 | 0.00 | 0.00 | 80 | 998.9 |
| 20260505032604 | 55 | 248 | 3.5 | 7.8 | 0.00 | 0.00 | 0.00 | 80 | 998.9 |
| 20260505032504 | 55 | 250 | 3.5 | 7.8 | 0.00 | 0.00 | 0.00 | 80 | 998.9 |
| 20260505032404 | 55 | 252 | 3.5 | 7.8 | 0.00 | 0.00 | 0.00 | 80 | 998.8 |
| 20260505032305 | 55 | 251 | 3.5 | 7.8 | 0.00 | 0.00 | 0.00 | 80 | 998.9 |
| 20260505032204 | 55 | 252 | 3.5 | 7.8 | 0.00 | 0.00 | 0.00 | 80 | 998.9 |
| 20260505032125 | 55 | 253 | 3.5 | 7.8 | 0.00 | 0.00 | 0.00 | 80 | 998.9 |
| 20260505032025 | 55 | 256 | 3.5 | 7.8 | 0.00 | 0.00 | 0.00 | 79 | 998.9 |
| 20260505031904 | 55 | 257 | 3.5 | 7.8 | 0.00 | 0.00 | 0.00 | 79 | 998.8 |
| 20260505031804 | 55 | 258 | 3.5 | 7.8 | 0.00 | 0.00 | 0.00 | 79 | 998.7 |
| 20260505031704 | 55 | 258 | 3.5 | 7.8 | 0.00 | 0.00 | 0.00 | 79 | 998.7 |
| 20260505031604 | 55 | 260 | 3.5 | 7.8 | 0.00 | 0.00 | 0.00 | 79 | 998.6 |
| 20260505031504 | 55 | 258 | 2.6 | 7.8 | 0.00 | 0.00 | 0.00 | 79 | 998.6 |
| 20260505031404 | 55 | 259 | 2.6 | 7.8 | 0.00 | 0.00 | 0.00 | 79 | 998.6 |
| 20260505031304 | 55 | 258 | 2.6 | 7.8 | 0.00 | 0.00 | 0.00 | 79 | 998.6 |
| 20260505031204 | 55 | 256 | 2.6 | 7.8 | 0.00 | 0.00 | 0.00 | 79 | 998.6 |
| 20260505031104 | 55 | 255 | 2.6 | 7.8 | 0.00 | 0.00 | 0.00 | 79 | 998.6 |
| 20260505031004 | 55 | 256 | 2.6 | 7.0 | 0.00 | 0.00 | 0.00 | 79 | 998.6 |
| 20260505030904 | 55 | 253 | 2.6 | 7.8 | 0.00 | 0.00 | 0.00 | 79 | 998.6 |
| 20260505030825 | 55 | 252 | 2.6 | 7.8 | 0.00 | 0.00 | 0.00 | 79 | 998.5 |
| 20260505030704 | 55 | 251 | 2.6 | 7.8 | 0.00 | 0.00 | 0.00 | 79 | 998.4 |
| 20260505030604 | 55 | 248 | 2.6 | 7.8 | 0.00 | 0.00 | 0.00 | 79 | 998.4 |
| 20260505030504 | 55 | 248 | 2.6 | 7.8 | 0.00 | 0.00 | 0.00 | 79 | 998.3 |
| 20260505030404 | 55 | 245 | 2.6 | 7.8 | 0.00 | 0.00 | 0.00 | 79 | 998.3 |
| 20260505030325 | 55 | 242 | 2.6 | 7.8 | 0.00 | 0.00 | 0.00 | 79 | 998.2 |
| 20260505030204 | 55 | 244 | 2.6 | 7.8 | 0.00 | 0.00 | 0.00 | 79 | 998.2 |
| 20260505030104 | 55 | 240 | 2.6 | 7.8 | 0.00 | 0.00 | 0.00 | 79 | 998.2 |
| 20260505030026 | 55 | 240 | 2.6 | 7.8 | 0.00 | 0.00 | 0.00 | 79 | 998.1 |
| 20260505025925 | 55 | 236 | 2.6 | 7.8 | 0.00 | 0.00 | 0.00 | 79 | 998.1 |
| 20260505025804 | 55 | 234 | 2.6 | 7.8 | 0.00 | 0.00 | 0.00 | 79 | 998.2 |
| 20260505025705 | 55 | 231 | 2.6 | 8.7 | 0.00 | 0.00 | 0.00 | 79 | 998.3 |
| 20260505025626 | 55 | 235 | 2.6 | 8.7 | 0.00 | 0.00 | 0.00 | 79 | 998.3 |
| 20260505025504 | 56 | 239 | 3.5 | 8.7 | 0.00 | 0.00 | 0.00 | 79 | 998.3 |
| 20260505025404 | 56 | 241 | 3.5 | 8.7 | 0.00 | 0.00 | 0.00 | 79 | 998.3 |
| 20260505025325 | 56 | 241 | 3.5 | 8.7 | 0.00 | 0.00 | 0.00 | 79 | 998.3 |
| 20260505025204 | 56 | 240 | 2.6 | 8.7 | 0.00 | 0.00 | 0.00 | 79 | 998.3 |
| 20260505025104 | 56 | 246 | 3.5 | 8.7 | 0.00 | 0.00 | 0.00 | 79 | 998.3 |
| 20260505025004 | 56 | 247 | 3.5 | 8.7 | 0.00 | 0.00 | 0.00 | 79 | 998.3 |
| 20260505024905 | 56 | 247 | 3.5 | 8.7 | 0.00 | 0.00 | 0.00 | 79 | 998.3 |
| 20260505024804 | 56 | 246 | 3.5 | 8.7 | 0.00 | 0.00 | 0.00 | 79 | 998.3 |
| 20260505024704 | 55 | 245 | 3.5 | 8.7 | 0.00 | 0.00 | 0.00 | 79 | 998.3 |
| 20260505024604 | 55 | 243 | 3.5 | 8.7 | 0.00 | 0.00 | 0.00 | 79 | 998.3 |
| 20260505024504 | 55 | 242 | 3.5 | 8.7 | 0.00 | 0.00 | 0.00 | 79 | 998.4 |
| 20260505024404 | 55 | 239 | 3.5 | 10.4 | 0.00 | 0.00 | 0.00 | 80 | 998.3 |
| 20260505024304 | 55 | 242 | 3.5 | 10.4 | 0.00 | 0.00 | 0.00 | 80 | 998.3 |
| 20260505024204 | 55 | 241 | 3.5 | 10.4 | 0.00 | 0.00 | 0.00 | 80 | 998.3 |
| 20260505024104 | 55 | 237 | 4.3 | 10.4 | 0.00 | 0.00 | 0.00 | 80 | 998.3 |
| 20260505024004 | 55 | 235 | 4.3 | 10.4 | 0.00 | 0.00 | 0.00 | 79 | 998.3 |
| 20260505023904 | 55 | 238 | 4.3 | 10.4 | 0.00 | 0.00 | 0.00 | 79 | 998.4 |
| 20260505023805 | 55 | 240 | 5.2 | 10.4 | 0.00 | 0.00 | 0.00 | 79 | 998.4 |
| 20260505023704 | 55 | 243 | 5.2 | 10.4 | 0.00 | 0.00 | 0.00 | 79 | 998.5 |
| 20260505023604 | 55 | 244 | 5.2 | 13.0 | 0.00 | 0.00 | 0.00 | 79 | 998.5 |
| 20260505023504 | 55 | 245 | 4.3 | 13.0 | 0.00 | 0.00 | 0.00 | 79 | 998.4 |
| 20260505023425 | 55 | 244 | 4.3 | 13.0 | 0.00 | 0.00 | 0.00 | 79 | 998.4 |
| 20260505023325 | 55 | 244 | 4.3 | 13.0 | 0.00 | 0.00 | 0.00 | 79 | 998.4 |
| 20260505023225 | 55 | 245 | 4.3 | 13.0 | 0.00 | 0.00 | 0.00 | 79 | 998.4 |
| 20260505023104 | 55 | 247 | 4.3 | 13.0 | 0.00 | 0.00 | 0.00 | 79 | 998.6 |
| 20260505023004 | 54 | 250 | 3.5 | 13.0 | 0.00 | 0.00 | 0.00 | 79 | 998.6 |
| 20260505022904 | 54 | 249 | 4.3 | 13.0 | 0.00 | 0.00 | 0.00 | 79 | 998.4 |
| 20260505022805 | 54 | 250 | 3.5 | 13.0 | 0.00 | 0.00 | 0.00 | 78 | 998.4 |
| 20260505022705 | 54 | 250 | 3.5 | 13.0 | 0.00 | 0.00 | 0.00 | 78 | 998.4 |
| 20260505022604 | 54 | 248 | 3.5 | 11.3 | 0.00 | 0.00 | 0.00 | 78 | 998.2 |
| 20260505022504 | 54 | 248 | 4.3 | 11.3 | 0.00 | 0.00 | 0.00 | 78 | 998.2 |
| 20260505022404 | 55 | 248 | 4.3 | 12.2 | 0.00 | 0.00 | 0.00 | 78 | 998.5 |
| 20260505022304 | 55 | 249 | 5.2 | 12.2 | 0.00 | 0.00 | 0.00 | 78 | 998.5 |
| 20260505022204 | 55 | 249 | 5.2 | 14.8 | 0.00 | 0.00 | 0.00 | 77 | 998.1 |
| 20260505022104 | 55 | 248 | 6.1 | 14.8 | 0.00 | 0.00 | 0.00 | 77 | 998.1 |
| 20260505022004 | 55 | 246 | 6.1 | 14.8 | 0.00 | 0.00 | 0.00 | 77 | 998.1 |
| 20260505021904 | 55 | 246 | 6.1 | 14.8 | 0.00 | 0.00 | 0.00 | 77 | 997.8 |
| 20260505021804 | 55 | 245 | 6.1 | 14.8 | 0.00 | 0.00 | 0.00 | 77 | 997.8 |
| 20260505021725 | 55 | 244 | 6.1 | 14.8 | 0.00 | 0.00 | 0.00 | 76 | 997.8 |
| 20260505021604 | 55 | 245 | 7.0 | 16.5 | 0.00 | 0.00 | 0.00 | 76 | 997.6 |
| 20260505021504 | 56 | 245 | 7.0 | 16.5 | 0.00 | 0.00 | 0.00 | 75 | 997.6 |
| 20260505021404 | 56 | 245 | 7.0 | 16.5 | 0.00 | 0.00 | 0.00 | 75 | 997.5 |
| 20260505021304 | 56 | 244 | 7.0 | 16.5 | 0.00 | 0.00 | 0.00 | 75 | 997.5 |
| 20260505021204 | 56 | 242 | 7.0 | 16.5 | 0.00 | 0.00 | 0.00 | 74 | 997.5 |
| 20260505021105 | 57 | 244 | 7.0 | 16.5 | 0.00 | 0.00 | 0.00 | 74 | 997.3 |
| 20260505021004 | 57 | 243 | 7.0 | 17.4 | 0.00 | 0.00 | 0.00 | 73 | 997.3 |
| 20260505020904 | 57 | 243 | 7.0 | 17.4 | 0.00 | 0.00 | 0.00 | 72 | 997.3 |
| 20260505020825 | 58 | 242 | 7.0 | 17.4 | 0.00 | 0.00 | 0.00 | 72 | 997.3 |
| 20260505020725 | 58 | 240 | 7.0 | 17.4 | 0.00 | 0.00 | 0.00 | 72 | 997.2 |
| 20260505020625 | 58 | 238 | 6.1 | 17.4 | 0.00 | 0.00 | 0.00 | 72 | 997.0 |
| 20260505020504 | 58 | 236 | 6.1 | 17.4 | 0.00 | 0.00 | 0.00 | 73 | 997.0 |
| 20260505020425 | 58 | 235 | 6.1 | 17.4 | 0.00 | 0.00 | 0.00 | 73 | 996.8 |
| 20260505020304 | 58 | 235 | 6.1 | 17.4 | 0.00 | 0.00 | 0.00 | 73 | 996.9 |
| 20260505020204 | 58 | 235 | 6.1 | 17.4 | 0.00 | 0.00 | 0.00 | 73 | 996.9 |
| 20260505020104 | 58 | 233 | 5.2 | 17.4 | 0.00 | 0.00 | 0.00 | 74 | 996.9 |
| 20260505020004 | 57 | 232 | 5.2 | 13.0 | 0.00 | 0.00 | 0.00 | 74 | 996.9 |
| 20260505015904 | 57 | 229 | 5.2 | 13.0 | 0.00 | 0.00 | 0.00 | 74 | 996.9 |
| 20260505015805 | 57 | 227 | 5.2 | 13.0 | 0.00 | 0.00 | 0.00 | 74 | 996.7 |
| 20260505015704 | 57 | 228 | 5.2 | 13.0 | 0.00 | 0.00 | 0.00 | 74 | 996.7 |
| 20260505015604 | 57 | 230 | 5.2 | 13.0 | 0.00 | 0.00 | 0.00 | 74 | 996.8 |
| 20260505015504 | 57 | 230 | 5.2 | 13.0 | 0.00 | 0.00 | 0.00 | 74 | 996.7 |
| 20260505015425 | 57 | 230 | 5.2 | 13.0 | 0.00 | 0.00 | 0.00 | 74 | 996.7 |
| 20260505015325 | 57 | 229 | 5.2 | 13.0 | 0.00 | 0.00 | 0.00 | 74 | 996.6 |
| 20260505015204 | 58 | 226 | 4.3 | 13.0 | 0.00 | 0.00 | 0.00 | 74 | 996.6 |
| 20260505015104 | 58 | 225 | 5.2 | 12.2 | 0.00 | 0.00 | 0.00 | 73 | 996.7 |
| 20260505015004 | 58 | 224 | 5.2 | 13.9 | 0.00 | 0.00 | 0.00 | 73 | 996.7 |
| 20260505014904 | 58 | 222 | 5.2 | 13.9 | 0.00 | 0.00 | 0.00 | 73 | 996.7 |
| 20260505014804 | 58 | 225 | 5.2 | 13.9 | 0.00 | 0.00 | 0.00 | 73 | 996.6 |
| 20260505014704 | 58 | 225 | 5.2 | 13.9 | 0.00 | 0.00 | 0.00 | 72 | 996.6 |
| 20260505014625 | 58 | 223 | 5.2 | 13.9 | 0.00 | 0.00 | 0.00 | 72 | 996.5 |
| 20260505014504 | 58 | 217 | 5.2 | 13.9 | 0.00 | 0.00 | 0.00 | 73 | 996.5 |
| 20260505014404 | 58 | 214 | 5.2 | 13.9 | 0.00 | 0.00 | 0.00 | 73 | 996.5 |
| 20260505014325 | 58 | 214 | 5.2 | 13.9 | 0.00 | 0.00 | 0.00 | 73 | 996.3 |
| 20260505014225 | 58 | 211 | 5.2 | 13.9 | 0.00 | 0.00 | 0.00 | 73 | 996.3 |
| 20260505014104 | 58 | 208 | 5.2 | 13.9 | 0.00 | 0.00 | 0.00 | 73 | 996.4 |
| 20260505014004 | 58 | 205 | 5.2 | 13.9 | 0.00 | 0.00 | 0.00 | 73 | 996.2 |
| 20260505013925 | 58 | 207 | 5.2 | 13.9 | 0.00 | 0.00 | 0.00 | 73 | 996.2 |
| 20260505013804 | 59 | 208 | 5.2 | 13.9 | 0.00 | 0.00 | 0.00 | 73 | 996.1 |
| 20260505013725 | 59 | 210 | 5.2 | 13.9 | 0.00 | 0.00 | 0.00 | 73 | 996.1 |
| 20260505013604 | 59 | 212 | 5.2 | 13.9 | 0.00 | 0.00 | 0.00 | 73 | 996.0 |
| 20260505013504 | 59 | 213 | 5.2 | 13.0 | 0.00 | 0.00 | 0.00 | 73 | 996.0 |
| 20260505013404 | 59 | 216 | 5.2 | 20.9 | 0.00 | 0.00 | 0.00 | 72 | 996.0 |
| 20260505013304 | 59 | 221 | 6.1 | 20.9 | 0.00 | 0.00 | 0.00 | 72 | 996.2 |
| 20260505013225 | 59 | 222 | 6.1 | 20.9 | 0.00 | 0.00 | 0.00 | 73 | 996.2 |
| 20260505013104 | 59 | 225 | 6.1 | 20.9 | 0.00 | 0.00 | 0.00 | 73 | 996.0 |
| 20260505013004 | 60 | 224 | 6.1 | 20.9 | 0.00 | 0.00 | 0.00 | 73 | 996.0 |
| 20260505012925 | 60 | 225 | 6.1 | 20.9 | 0.00 | 0.00 | 0.00 | 72 | 996.0 |
| 20260505012804 | 60 | 222 | 6.1 | 20.9 | 0.00 | 0.00 | 0.00 | 72 | 996.0 |
| 20260505012704 | 60 | 220 | 6.1 | 20.9 | 0.00 | 0.00 | 0.00 | 72 | 996.1 |
| 20260505012604 | 60 | 221 | 6.1 | 20.9 | 0.00 | 0.00 | 0.00 | 72 | 996.1 |
| 20260505012504 | 60 | 218 | 6.1 | 20.9 | 0.00 | 0.00 | 0.00 | 72 | 996.0 |
| 20260505012404 | 60 | 218 | 6.1 | 15.6 | 0.00 | 0.00 | 0.00 | 72 | 996.0 |
| 20260505012304 | 60 | 214 | 6.1 | 15.6 | 0.00 | 0.00 | 0.00 | 72 | 996.0 |
| 20260505012204 | 60 | 212 | 6.1 | 15.6 | 0.00 | 0.00 | 0.00 | 72 | 996.0 |
| 20260505012125 | 61 | 215 | 6.1 | 15.6 | 0.00 | 0.00 | 0.00 | 72 | 996.0 |
| 20260505012004 | 61 | 212 | 6.1 | 15.6 | 0.00 | 0.00 | 0.00 | 72 | 996.0 |
| 20260505011904 | 61 | 208 | 6.1 | 15.6 | 0.00 | 0.00 | 0.00 | 72 | 996.0 |
| 20260505011825 | 61 | 207 | 6.1 | 15.6 | 0.00 | 0.00 | 0.00 | 71 | 996.0 |
| 20260505011704 | 62 | 210 | 7.0 | 14.8 | 0.00 | 0.00 | 0.00 | 70 | 996.1 |
| 20260505011604 | 62 | 211 | 7.0 | 14.8 | 0.00 | 0.00 | 0.00 | 69 | 996.1 |
| 20260505011504 | 62 | 212 | 7.0 | 15.6 | 0.00 | 0.00 | 0.00 | 68 | 995.8 |
| 20260505011404 | 62 | 211 | 7.0 | 15.6 | 0.00 | 0.00 | 0.00 | 69 | 995.7 |
| 20260505011304 | 62 | 211 | 7.0 | 15.6 | 0.00 | 0.00 | 0.00 | 68 | 995.7 |
| 20260505011204 | 63 | 214 | 7.0 | 15.6 | 0.00 | 0.00 | 0.00 | 68 | 995.8 |
| 20260505011104 | 63 | 216 | 7.0 | 15.6 | 0.00 | 0.00 | 0.00 | 67 | 995.7 |
| 20260505011004 | 63 | 218 | 7.0 | 15.6 | 0.00 | 0.00 | 0.00 | 67 | 995.7 |
| 20260505010904 | 64 | 217 | 7.0 | 15.6 | 0.00 | 0.00 | 0.00 | 66 | 996.1 |
| 20260505010804 | 64 | 218 | 7.0 | 15.6 | 0.00 | 0.00 | 0.00 | 66 | 996.1 |
| 20260505010704 | 64 | 216 | 6.1 | 15.6 | 0.00 | 0.00 | 0.00 | 66 | 995.9 |
| 20260505010605 | 64 | 215 | 6.1 | 15.6 | 0.00 | 0.00 | 0.00 | 65 | 995.9 |
| 20260505010505 | 64 | 218 | 6.1 | 14.8 | 0.00 | 0.00 | 0.00 | 64 | 995.9 |
| 20260505010404 | 64 | 219 | 6.1 | 14.8 | 0.00 | 0.00 | 0.00 | 64 | 995.7 |
| 20260505010304 | 65 | 218 | 6.1 | 14.8 | 0.00 | 0.00 | 0.00 | 64 | 995.7 |
| 20260505010204 | 65 | 216 | 6.1 | 14.8 | 0.00 | 0.00 | 0.00 | 64 | 995.7 |
| 20260505010104 | 65 | 211 | 6.1 | 14.8 | 0.00 | 0.00 | 0.00 | 63 | 995.7 |
| 20260505010004 | 65 | 209 | 6.1 | 14.8 | 0.00 | 0.00 | 0.00 | 63 | 995.7 |
| 20260505005904 | 65 | 210 | 6.1 | 14.8 | 0.00 | 0.00 | 0.00 | 63 | 995.6 |
| 20260505005825 | 66 | 211 | 6.1 | 13.9 | 0.00 | 0.00 | 0.00 | 63 | 995.6 |
| 20260505005704 | 66 | 213 | 6.1 | 13.9 | 0.00 | 0.00 | 0.00 | 62 | 995.6 |
| 20260505005604 | 66 | 215 | 6.1 | 13.9 | 0.00 | 0.00 | 0.00 | 62 | 995.6 |
| 20260505005504 | 66 | 211 | 6.1 | 13.9 | 0.00 | 0.00 | 0.00 | 62 | 995.6 |
| 20260505005404 | 66 | 212 | 6.1 | 13.0 | 0.00 | 0.00 | 0.00 | 61 | 995.6 |
| 20260505005304 | 66 | 213 | 6.1 | 13.0 | 0.00 | 0.00 | 0.00 | 61 | 995.6 |
| 20260505005203 | 66 | 213 | 6.1 | 13.0 | 0.00 | 0.00 | 0.00 | 61 | 995.6 |
| 20260505005104 | 66 | 212 | 6.1 | 13.0 | 0.00 | 0.00 | 0.00 | 60 | 995.7 |
| 20260505005004 | 66 | 213 | 6.1 | 13.0 | 0.00 | 0.00 | 0.00 | 60 | 995.7 |
| 20260505004904 | 67 | 213 | 6.1 | 13.0 | 0.00 | 0.00 | 0.00 | 60 | 995.8 |
| 20260505004804 | 67 | 212 | 6.1 | 13.0 | 0.00 | 0.00 | 0.00 | 60 | 995.7 |
| 20260505004704 | 67 | 216 | 6.1 | 17.4 | 0.00 | 0.00 | 0.00 | 60 | 995.7 |
| 20260505004625 | 67 | 218 | 6.1 | 17.4 | 0.00 | 0.00 | 0.00 | 59 | 995.6 |
| 20260505004525 | 67 | 215 | 6.1 | 17.4 | 0.00 | 0.00 | 0.00 | 58 | 995.6 |
| 20260505004425 | 68 | 213 | 6.1 | 17.4 | 0.00 | 0.00 | 0.00 | 58 | 995.7 |
| 20260505004304 | 68 | 209 | 6.1 | 17.4 | 0.00 | 0.00 | 0.00 | 57 | 995.6 |
| 20260505004204 | 68 | 210 | 6.1 | 17.4 | 0.00 | 0.00 | 0.00 | 56 | 995.6 |
| 20260505004104 | 68 | 212 | 6.1 | 17.4 | 0.00 | 0.00 | 0.00 | 55 | 995.7 |
| 20260505004004 | 68 | 214 | 6.1 | 17.4 | 0.00 | 0.00 | 0.00 | 54 | 995.7 |
| 20260505003925 | 68 | 215 | 6.1 | 17.4 | 0.00 | 0.00 | 0.00 | 53 | 995.6 |
| 20260505003804 | 69 | 213 | 6.1 | 17.4 | 0.00 | 0.00 | 0.00 | 52 | 995.5 |
| 20260505003704 | 69 | 206 | 5.2 | 16.5 | 0.00 | 0.00 | 0.00 | 50 | 995.5 |
| 20260505003604 | 69 | 205 | 5.2 | 15.6 | 0.00 | 0.00 | 0.00 | 48 | 995.5 |
| 20260505003504 | 69 | 203 | 5.2 | 16.5 | 0.00 | 0.00 | 0.00 | 48 | 995.6 |
| 20260505003425 | 69 | 202 | 5.2 | 16.5 | 0.00 | 0.00 | 0.00 | 47 | 995.6 |
| 20260505003325 | 69 | 201 | 5.2 | 16.5 | 0.00 | 0.00 | 0.00 | 46 | 995.5 |
| 20260505003204 | 69 | 204 | 5.2 | 16.5 | 0.00 | 0.00 | 0.00 | 46 | 995.5 |
| 20260505003104 | 69 | 202 | 5.2 | 16.5 | 0.00 | 0.00 | 0.00 | 45 | 995.4 |
| 20260505003004 | 69 | 200 | 5.2 | 16.5 | 0.00 | 0.00 | 0.00 | 45 | 995.4 |
| 20260505002904 | 69 | 200 | 5.2 | 16.5 | 0.00 | 0.00 | 0.00 | 45 | 995.4 |
| 20260505002804 | 70 | 203 | 5.2 | 16.5 | 0.00 | 0.00 | 0.00 | 45 | 995.5 |
| 20260505002704 | 70 | 206 | 5.2 | 16.5 | 0.00 | 0.00 | 0.00 | 44 | 995.5 |
| 20260505002604 | 70 | 205 | 5.2 | 16.5 | 0.00 | 0.00 | 0.00 | 44 | 995.3 |
| 20260505002504 | 70 | 212 | 5.2 | 15.6 | 0.00 | 0.00 | 0.00 | 43 | 995.5 |
| 20260505002404 | 70 | 213 | 5.2 | 13.9 | 0.00 | 0.00 | 0.00 | 43 | 995.5 |
| 20260505002304 | 70 | 215 | 5.2 | 13.9 | 0.00 | 0.00 | 0.00 | 43 | 995.4 |
| 20260505002204 | 70 | 212 | 4.3 | 13.9 | 0.00 | 0.00 | 0.00 | 42 | 995.4 |
| 20260505002104 | 70 | 216 | 4.3 | 13.9 | 0.00 | 0.00 | 0.00 | 42 | 995.3 |
| 20260505002004 | 71 | 218 | 4.3 | 13.9 | 0.00 | 0.00 | 0.00 | 42 | 995.3 |
| 20260505001904 | 71 | 214 | 4.3 | 13.9 | 0.00 | 0.00 | 0.00 | 42 | 995.3 |
| 20260505001825 | 71 | 213 | 4.3 | 13.9 | 0.00 | 0.00 | 0.00 | 42 | 995.3 |
| 20260505001704 | 71 | 213 | 3.5 | 13.9 | 0.00 | 0.00 | 0.00 | 41 | 995.2 |
| 20260505001604 | 71 | 213 | 3.5 | 13.9 | 0.00 | 0.00 | 0.00 | 41 | 995.2 |
| 20260505001525 | 71 | 213 | 3.5 | 13.0 | 0.00 | 0.00 | 0.00 | 41 | 995.2 |
| 20260505001404 | 71 | 213 | 2.6 | 9.6 | 0.00 | 0.00 | 0.00 | 41 | 995.2 |
| 20260505001304 | 71 | 208 | 2.6 | 9.6 | 0.00 | 0.00 | 0.00 | 41 | 995.1 |
| 20260505001204 | 71 | 210 | 2.6 | 9.6 | 0.00 | 0.00 | 0.00 | 41 | 995.1 |
| 20260505001104 | 71 | 212 | 2.6 | 9.6 | 0.00 | 0.00 | 0.00 | 41 | 995.1 |
| 20260505001004 | 71 | 212 | 2.6 | 9.6 | 0.00 | 0.00 | 0.00 | 41 | 995.0 |
| 20260505000904 | 71 | 215 | 2.6 | 9.6 | 0.00 | 0.00 | 0.00 | 41 | 995.0 |
| 20260505000804 | 71 | 219 | 1.7 | 7.0 | 0.00 | 0.00 | 0.00 | 41 | 995.1 |
| 20260505000725 | 71 | 217 | 1.7 | 7.0 | 0.00 | 0.00 | 0.00 | 41 | 995.1 |
| 20260505000604 | 71 | 212 | 2.6 | 8.7 | 0.00 | 0.00 | 0.00 | 41 | 995.1 |
| 20260505000504 | 71 | 215 | 2.6 | 8.7 | 0.00 | 0.00 | 0.00 | 41 | 995.0 |
| 20260505000405 | 72 | 213 | 2.6 | 8.7 | 0.00 | 0.00 | 0.00 | 41 | 995.1 |
| 20260505000325 | 72 | 216 | 2.6 | 8.7 | 0.00 | 0.00 | 0.00 | 41 | 995.1 |
| 20260505000204 | 72 | 218 | 2.6 | 8.7 | 0.00 | 0.00 | 0.00 | 41 | 995.0 |
| 20260505000104 | 72 | 209 | 2.6 | 8.7 | 0.00 | 0.00 | 0.00 | 42 | 995.0 |
| 20260505000004 | 72 | 205 | 3.5 | 8.7 | 0.00 | 0.00 | 0.00 | 41 | 995.1 |
| 20260504235904 | 72 | 205 | 3.5 | 8.7 | 0.00 | 0.00 | 0.00 | 41 | 995.1 |
| 20260504235825 | 72 | 205 | 3.5 | 8.7 | 0.00 | 0.00 | 0.00 | 41 | 995.1 |
| 20260504235704 | 72 | 201 | 3.5 | 8.7 | 0.00 | 0.00 | 0.00 | 41 | 995.1 |
| 20260504235604 | 72 | 204 | 2.6 | 7.8 | 0.00 | 0.00 | 0.00 | 41 | 995.1 |
| 20260504235504 | 72 | 201 | 2.6 | 7.8 | 0.00 | 0.00 | 0.00 | 41 | 995.1 |
| 20260504235404 | 72 | 194 | 2.6 | 7.8 | 0.00 | 0.00 | 0.00 | 41 | 995.1 |
| 20260504235304 | 72 | 191 | 2.6 | 7.8 | 0.00 | 0.00 | 0.00 | 41 | 995.1 |
| 20260504235204 | 72 | 189 | 2.6 | 7.8 | 0.00 | 0.00 | 0.00 | 40 | 995.2 |
| 20260504235107 | 72 | 194 | 1.7 | 7.8 | 0.00 | 0.00 | 0.00 | 40 | 995.2 |
| 20260504235004 | 73 | 193 | 1.7 | 7.8 | 0.00 | 0.00 | 0.00 | 41 | 995.2 |
| 20260504234904 | 73 | 189 | 2.6 | 7.8 | 0.00 | 0.00 | 0.00 | 40 | 995.2 |
| 20260504234804 | 73 | 188 | 2.6 | 7.8 | 0.00 | 0.00 | 0.00 | 40 | 995.2 |
| 20260504234704 | 73 | 187 | 2.6 | 7.0 | 0.00 | 0.00 | 0.00 | 41 | 995.2 |
| 20260504234604 | 73 | 182 | 2.6 | 7.0 | 0.00 | 0.00 | 0.00 | 40 | 995.3 |
| 20260504234504 | 73 | 181 | 2.6 | 7.0 | 0.00 | 0.00 | 0.00 | 40 | 995.3 |
| 20260504234425 | 73 | 185 | 2.6 | 7.0 | 0.00 | 0.00 | 0.00 | 41 | 995.2 |
| 20260504234325 | 73 | 184 | 2.6 | 7.0 | 0.00 | 0.00 | 0.00 | 41 | 995.2 |
| 20260504234204 | 73 | 187 | 2.6 | 7.0 | 0.00 | 0.00 | 0.00 | 40 | 995.3 |
| 20260504234104 | 73 | 185 | 2.6 | 7.0 | 0.00 | 0.00 | 0.00 | 40 | 995.2 |
| 20260504234025 | 73 | 189 | 2.6 | 7.0 | 0.00 | 0.00 | 0.00 | 40 | 995.2 |
| 20260504233904 | 74 | 196 | 2.6 | 7.0 | 0.00 | 0.00 | 0.00 | 40 | 995.3 |
| 20260504233804 | 74 | 199 | 2.6 | 7.0 | 0.00 | 0.00 | 0.00 | 39 | 995.3 |
| 20260504233703 | 74 | 199 | 2.6 | 7.0 | 0.00 | 0.00 | 0.00 | 39 | 995.3 |
| 20260504233624 | 74 | 205 | 2.6 | 7.0 | 0.00 | 0.00 | 0.00 | 39 | 995.3 |
| 20260504233504 | 74 | 207 | 2.6 | 7.0 | 0.00 | 0.00 | 0.00 | 39 | 995.3 |
| 20260504233425 | 74 | 207 | 2.6 | 7.0 | 0.00 | 0.00 | 0.00 | 39 | 995.3 |
| 20260504233304 | 74 | 209 | 2.6 | 7.8 | 0.00 | 0.00 | 0.00 | 40 | 995.3 |
| 20260504233225 | 74 | 207 | 2.6 | 7.8 | 0.00 | 0.00 | 0.00 | 39 | 995.3 |
| 20260504233104 | 74 | 208 | 2.6 | 7.8 | 0.00 | 0.00 | 0.00 | 39 | 995.4 |
| 20260504233004 | 74 | 203 | 2.6 | 8.7 | 0.00 | 0.00 | 0.00 | 39 | 995.4 |
| 20260504232904 | 74 | 202 | 2.6 | 8.7 | 0.00 | 0.00 | 0.00 | 39 | 995.4 |
| 20260504232804 | 74 | 205 | 2.6 | 8.7 | 0.00 | 0.00 | 0.00 | 39 | 995.4 |
| 20260504232703 | 74 | 204 | 2.6 | 8.7 | 0.00 | 0.00 | 0.00 | 39 | 995.4 |
| 20260504232604 | 74 | 197 | 2.6 | 8.7 | 0.00 | 0.00 | 0.00 | 39 | 995.5 |
| 20260504232504 | 74 | 195 | 2.6 | 8.7 | 0.00 | 0.00 | 0.00 | 38 | 995.4 |
| 20260504232404 | 74 | 195 | 2.6 | 8.7 | 0.00 | 0.00 | 0.00 | 38 | 995.4 |
| 20260504232304 | 74 | 196 | 2.6 | 8.7 | 0.00 | 0.00 | 0.00 | 38 | 995.5 |
| 20260504232225 | 74 | 195 | 2.6 | 8.7 | 0.00 | 0.00 | 0.00 | 38 | 995.5 |
| 20260504232103 | 74 | 191 | 2.6 | 8.7 | 0.00 | 0.00 | 0.00 | 38 | 995.4 |
| 20260504232004 | 74 | 193 | 2.6 | 7.8 | 0.00 | 0.00 | 0.00 | 38 | 995.4 |
| 20260504231904 | 74 | 194 | 2.6 | 7.8 | 0.00 | 0.00 | 0.00 | 38 | 995.4 |
| 20260504231825 | 74 | 194 | 2.6 | 7.8 | 0.00 | 0.00 | 0.00 | 38 | 995.4 |
| 20260504231725 | 74 | 194 | 2.6 | 7.8 | 0.00 | 0.00 | 0.00 | 38 | 995.4 |
| 20260504231603 | 74 | 198 | 2.6 | 7.8 | 0.00 | 0.00 | 0.00 | 38 | 995.5 |
| 20260504231504 | 74 | 202 | 2.6 | 7.0 | 0.00 | 0.00 | 0.00 | 38 | 995.5 |
| 20260504231404 | 74 | 205 | 2.6 | 10.4 | 0.00 | 0.00 | 0.00 | 38 | 995.5 |
| 20260504231304 | 74 | 206 | 2.6 | 10.4 | 0.00 | 0.00 | 0.00 | 38 | 995.5 |
| 20260504231204 | 74 | 202 | 2.6 | 10.4 | 0.00 | 0.00 | 0.00 | 38 | 995.6 |
| 20260504231104 | 74 | 204 | 2.6 | 10.4 | 0.00 | 0.00 | 0.00 | 38 | 995.6 |
| 20260504231004 | 74 | 210 | 2.6 | 10.4 | 0.00 | 0.00 | 0.00 | 38 | 995.7 |
| 20260504230903 | 74 | 210 | 2.6 | 10.4 | 0.00 | 0.00 | 0.00 | 39 | 995.7 |
| 20260504230804 | 74 | 207 | 2.6 | 10.4 | 0.00 | 0.00 | 0.00 | 39 | 995.7 |
| 20260504230704 | 74 | 211 | 2.6 | 10.4 | 0.00 | 0.00 | 0.00 | 39 | 995.8 |
| 20260504230604 | 74 | 216 | 2.6 | 10.4 | 0.00 | 0.00 | 0.00 | 39 | 995.8 |
| 20260504230503 | 74 | 218 | 3.5 | 10.4 | 0.00 | 0.00 | 0.00 | 39 | 995.8 |
| 20260504230403 | 74 | 222 | 3.5 | 9.6 | 0.00 | 0.00 | 0.00 | 39 | 995.9 |
| 20260504230303 | 74 | 222 | 3.5 | 9.6 | 0.00 | 0.00 | 0.00 | 39 | 995.9 |
| 20260504230204 | 74 | 225 | 3.5 | 13.9 | 0.00 | 0.00 | 0.00 | 39 | 995.9 |
| 20260504230104 | 74 | 225 | 3.5 | 13.9 | 0.00 | 0.00 | 0.00 | 38 | 995.9 |
| 20260504230024 | 74 | 227 | 3.5 | 13.9 | 0.00 | 0.00 | 0.00 | 38 | 996.0 |
| 20260504225903 | 74 | 223 | 3.5 | 13.9 | 0.00 | 0.00 | 0.00 | 39 | 996.1 |
| 20260504225804 | 74 | 222 | 3.5 | 13.9 | 0.00 | 0.00 | 0.00 | 38 | 996.1 |
| 20260504225704 | 74 | 219 | 3.5 | 13.9 | 0.00 | 0.00 | 0.00 | 39 | 996.1 |
| 20260504225604 | 74 | 216 | 4.3 | 13.9 | 0.00 | 0.00 | 0.00 | 39 | 996.1 |
| 20260504225504 | 74 | 215 | 4.3 | 13.9 | 0.00 | 0.00 | 0.00 | 38 | 996.2 |
| 20260504225403 | 74 | 211 | 4.3 | 13.9 | 0.00 | 0.00 | 0.00 | 39 | 996.2 |
| 20260504225304 | 74 | 214 | 4.3 | 13.9 | 0.00 | 0.00 | 0.00 | 39 | 996.2 |
| 20260504225225 | 74 | 211 | 4.3 | 13.0 | 0.00 | 0.00 | 0.00 | 39 | 996.3 |
| 20260504225104 | 74 | 213 | 4.3 | 10.4 | 0.00 | 0.00 | 0.00 | 39 | 996.3 |
| 20260504225004 | 74 | 210 | 4.3 | 10.4 | 0.00 | 0.00 | 0.00 | 39 | 996.3 |
| 20260504224903 | 74 | 211 | 4.3 | 10.4 | 0.00 | 0.00 | 0.00 | 39 | 996.3 |
| 20260504224803 | 74 | 211 | 4.3 | 10.4 | 0.00 | 0.00 | 0.00 | 39 | 996.3 |
| 20260504224725 | 74 | 212 | 4.3 | 10.4 | 0.00 | 0.00 | 0.00 | 39 | 996.4 |
| 20260504224604 | 74 | 212 | 3.5 | 10.4 | 0.00 | 0.00 | 0.00 | 39 | 996.4 |
| 20260504224504 | 74 | 212 | 4.3 | 10.4 | 0.00 | 0.00 | 0.00 | 39 | 996.4 |
| 20260504224404 | 74 | 212 | 4.3 | 10.4 | 0.00 | 0.00 | 0.00 | 40 | 996.4 |
| 20260504224304 | 74 | 207 | 3.5 | 8.7 | 0.00 | 0.00 | 0.00 | 39 | 996.4 |
| 20260504224204 | 74 | 209 | 4.3 | 8.7 | 0.00 | 0.00 | 0.00 | 39 | 996.5 |
| 20260504224125 | 74 | 208 | 4.3 | 8.7 | 0.00 | 0.00 | 0.00 | 39 | 996.5 |
| 20260504224004 | 74 | 210 | 3.5 | 8.7 | 0.00 | 0.00 | 0.00 | 40 | 996.6 |
| 20260504223904 | 74 | 209 | 3.5 | 11.3 | 0.00 | 0.00 | 0.00 | 40 | 996.5 |
| 20260504223803 | 74 | 213 | 3.5 | 11.3 | 0.00 | 0.00 | 0.00 | 40 | 996.5 |
| 20260504223704 | 74 | 214 | 4.3 | 11.3 | 0.00 | 0.00 | 0.00 | 40 | 996.6 |
| 20260504223604 | 74 | 209 | 4.3 | 11.3 | 0.00 | 0.00 | 0.00 | 40 | 996.6 |
| 20260504223504 | 74 | 210 | 4.3 | 11.3 | 0.00 | 0.00 | 0.00 | 40 | 996.6 |
| 20260504223425 | 74 | 211 | 4.3 | 11.3 | 0.00 | 0.00 | 0.00 | 39 | 996.6 |
| 20260504223304 | 73 | 216 | 4.3 | 11.3 | 0.00 | 0.00 | 0.00 | 40 | 996.6 |
| 20260504223203 | 73 | 215 | 4.3 | 11.3 | 0.00 | 0.00 | 0.00 | 40 | 996.6 |
| 20260504223104 | 73 | 217 | 4.3 | 11.3 | 0.00 | 0.00 | 0.00 | 41 | 996.7 |
| 20260504223004 | 73 | 216 | 4.3 | 11.3 | 0.00 | 0.00 | 0.00 | 41 | 996.7 |
| 20260504222925 | 73 | 219 | 4.3 | 10.4 | 0.00 | 0.00 | 0.00 | 41 | 996.8 |
| 20260504222803 | 73 | 219 | 4.3 | 10.4 | 0.00 | 0.00 | 0.00 | 41 | 996.7 |
| 20260504222704 | 73 | 214 | 4.3 | 10.4 | 0.00 | 0.00 | 0.00 | 41 | 996.7 |
| 20260504222604 | 73 | 214 | 4.3 | 10.4 | 0.00 | 0.00 | 0.00 | 41 | 996.7 |
| 20260504222504 | 73 | 208 | 4.3 | 10.4 | 0.00 | 0.00 | 0.00 | 42 | 996.7 |
| 20260504222404 | 73 | 208 | 5.2 | 10.4 | 0.00 | 0.00 | 0.00 | 42 | 996.8 |
| 20260504222305 | 73 | 206 | 5.2 | 9.6 | 0.00 | 0.00 | 0.00 | 42 | 996.8 |
| 20260504222204 | 72 | 205 | 5.2 | 13.0 | 0.00 | 0.00 | 0.00 | 42 | 996.8 |
| 20260504222104 | 72 | 201 | 5.2 | 13.0 | 0.00 | 0.00 | 0.00 | 42 | 996.8 |
| 20260504222003 | 72 | 203 | 5.2 | 13.0 | 0.00 | 0.00 | 0.00 | 42 | 996.8 |
| 20260504221903 | 72 | 202 | 6.1 | 13.0 | 0.00 | 0.00 | 0.00 | 42 | 996.8 |
| 20260504221804 | 72 | 203 | 5.2 | 13.0 | 0.00 | 0.00 | 0.00 | 41 | 996.9 |
| 20260504221704 | 72 | 208 | 5.2 | 13.0 | 0.00 | 0.00 | 0.00 | 42 | 996.9 |
| 20260504221625 | 72 | 211 | 5.2 | 13.0 | 0.00 | 0.00 | 0.00 | 41 | 996.9 |
| 20260504221503 | 72 | 218 | 5.2 | 13.0 | 0.00 | 0.00 | 0.00 | 42 | 996.9 |
| 20260504221403 | 72 | 218 | 5.2 | 13.0 | 0.00 | 0.00 | 0.00 | 41 | 996.9 |
| 20260504221325 | 72 | 218 | 5.2 | 13.0 | 0.00 | 0.00 | 0.00 | 41 | 996.9 |
| 20260504221204 | 72 | 224 | 4.3 | 8.7 | 0.00 | 0.00 | 0.00 | 41 | 996.9 |
| 20260504221104 | 72 | 223 | 4.3 | 9.6 | 0.00 | 0.00 | 0.00 | 41 | 996.9 |
| 20260504221025 | 72 | 226 | 4.3 | 9.6 | 0.00 | 0.00 | 0.00 | 42 | 996.9 |
| 20260504220904 | 72 | 224 | 4.3 | 11.3 | 0.00 | 0.00 | 0.00 | 42 | 997.0 |
| 20260504220825 | 72 | 225 | 4.3 | 11.3 | 0.00 | 0.00 | 0.00 | 42 | 996.9 |
| 20260504220725 | 72 | 223 | 4.3 | 11.3 | 0.00 | 0.00 | 0.00 | 43 | 996.9 |
| 20260504220625 | 72 | 225 | 4.3 | 11.3 | 0.00 | 0.00 | 0.00 | 43 | 997.0 |
| 20260504220503 | 72 | 227 | 4.3 | 11.3 | 0.00 | 0.00 | 0.00 | 44 | 997.0 |
| 20260504220403 | 72 | 226 | 4.3 | 12.2 | 0.00 | 0.00 | 0.00 | 44 | 997.0 |
| 20260504220304 | 72 | 228 | 4.3 | 12.2 | 0.00 | 0.00 | 0.00 | 44 | 997.1 |
| 20260504220204 | 72 | 228 | 5.2 | 12.2 | 0.00 | 0.00 | 0.00 | 44 | 997.1 |
| 20260504220103 | 72 | 230 | 5.2 | 12.2 | 0.00 | 0.00 | 0.00 | 45 | 997.0 |
| 20260504220004 | 72 | 230 | 5.2 | 12.2 | 0.00 | 0.00 | 0.00 | 45 | 997.1 |
| 20260504215925 | 72 | 230 | 5.2 | 12.2 | 0.00 | 0.00 | 0.00 | 45 | 997.1 |
| 20260504215804 | 72 | 227 | 5.2 | 13.0 | 0.00 | 0.00 | 0.00 | 45 | 997.0 |
| 20260504215704 | 72 | 221 | 5.2 | 13.0 | 0.00 | 0.00 | 0.00 | 45 | 997.0 |
| 20260504215603 | 72 | 212 | 5.2 | 13.0 | 0.00 | 0.00 | 0.00 | 45 | 997.0 |
| 20260504215504 | 72 | 206 | 5.2 | 13.0 | 0.00 | 0.00 | 0.00 | 46 | 997.0 |
| 20260504215424 | 72 | 204 | 5.2 | 13.0 | 0.00 | 0.00 | 0.00 | 45 | 997.0 |
| 20260504215304 | 72 | 200 | 5.2 | 13.0 | 0.00 | 0.00 | 0.00 | 46 | 997.1 |
| 20260504215204 | 72 | 198 | 5.2 | 13.0 | 0.00 | 0.00 | 0.00 | 46 | 997.1 |
| 20260504215125 | 72 | 198 | 5.2 | 13.0 | 0.00 | 0.00 | 0.00 | 46 | 997.1 |
| 20260504215004 | 72 | 198 | 5.2 | 13.0 | 0.00 | 0.00 | 0.00 | 45 | 997.0 |
| 20260504214903 | 72 | 195 | 4.3 | 13.0 | 0.00 | 0.00 | 0.00 | 46 | 997.0 |
| 20260504214803 | 72 | 196 | 5.2 | 12.2 | 0.00 | 0.00 | 0.00 | 46 | 997.1 |
| 20260504214704 | 72 | 199 | 5.2 | 12.2 | 0.00 | 0.00 | 0.00 | 46 | 997.1 |
| 20260504214604 | 72 | 209 | 5.2 | 12.2 | 0.00 | 0.00 | 0.00 | 46 | 997.1 |
| 20260504214504 | 72 | 209 | 5.2 | 12.2 | 0.00 | 0.00 | 0.00 | 46 | 997.2 |
| 20260504214403 | 72 | 211 | 5.2 | 12.2 | 0.00 | 0.00 | 0.00 | 47 | 997.2 |
| 20260504214303 | 72 | 210 | 5.2 | 12.2 | 0.00 | 0.00 | 0.00 | 46 | 997.2 |
| 20260504214204 | 72 | 210 | 5.2 | 12.2 | 0.00 | 0.00 | 0.00 | 46 | 997.2 |
| 20260504214104 | 72 | 211 | 5.2 | 12.2 | 0.00 | 0.00 | 0.00 | 46 | 997.2 |
| 20260504214005 | 72 | 207 | 5.2 | 11.3 | 0.00 | 0.00 | 0.00 | 46 | 997.2 |
| 20260504213925 | 72 | 207 | 5.2 | 11.3 | 0.00 | 0.00 | 0.00 | 46 | 997.2 |
| 20260504213803 | 72 | 212 | 5.2 | 11.3 | 0.00 | 0.00 | 0.00 | 46 | 997.2 |
| 20260504213703 | 72 | 213 | 5.2 | 11.3 | 0.00 | 0.00 | 0.00 | 46 | 997.2 |
| 20260504213625 | 72 | 214 | 5.2 | 13.0 | 0.00 | 0.00 | 0.00 | 46 | 997.2 |
| 20260504213504 | 72 | 215 | 4.3 | 13.0 | 0.00 | 0.00 | 0.00 | 46 | 997.3 |
| 20260504213424 | 72 | 215 | 4.3 | 13.0 | 0.00 | 0.00 | 0.00 | 46 | 997.3 |
| 20260504213303 | 72 | 217 | 4.3 | 13.0 | 0.00 | 0.00 | 0.00 | 47 | 997.3 |
| 20260504213203 | 72 | 219 | 4.3 | 13.0 | 0.00 | 0.00 | 0.00 | 47 | 997.3 |
| 20260504213103 | 72 | 216 | 5.2 | 13.0 | 0.00 | 0.00 | 0.00 | 47 | 997.3 |
| 20260504213004 | 72 | 218 | 5.2 | 13.0 | 0.00 | 0.00 | 0.00 | 47 | 997.3 |
| 20260504212904 | 72 | 216 | 5.2 | 13.0 | 0.00 | 0.00 | 0.00 | 48 | 997.3 |
| 20260504212803 | 72 | 213 | 5.2 | 13.0 | 0.00 | 0.00 | 0.00 | 47 | 997.3 |
| 20260504212703 | 72 | 211 | 4.3 | 13.0 | 0.00 | 0.00 | 0.00 | 47 | 997.3 |
| 20260504212604 | 72 | 204 | 4.3 | 13.0 | 0.00 | 0.00 | 0.00 | 48 | 997.4 |
| 20260504212504 | 72 | 206 | 5.2 | 13.0 | 0.00 | 0.00 | 0.00 | 48 | 997.4 |
| 20260504212425 | 72 | 209 | 5.2 | 13.0 | 0.00 | 0.00 | 0.00 | 48 | 997.3 |
| 20260504212304 | 72 | 211 | 5.2 | 13.0 | 0.00 | 0.00 | 0.00 | 48 | 997.3 |
| 20260504212203 | 72 | 210 | 5.2 | 13.0 | 0.00 | 0.00 | 0.00 | 48 | 997.5 |
| 20260504212104 | 72 | 212 | 5.2 | 13.0 | 0.00 | 0.00 | 0.00 | 49 | 997.4 |
| 20260504212003 | 72 | 213 | 5.2 | 13.0 | 0.00 | 0.00 | 0.00 | 49 | 997.4 |
| 20260504211903 | 72 | 217 | 5.2 | 13.0 | 0.00 | 0.00 | 0.00 | 49 | 997.4 |
| 20260504211803 | 71 | 220 | 5.2 | 13.0 | 0.00 | 0.00 | 0.00 | 48 | 997.4 |
| 20260504211724 | 71 | 221 | 5.2 | 13.0 | 0.00 | 0.00 | 0.00 | 49 | 997.4 |
| 20260504211603 | 71 | 220 | 6.1 | 13.0 | 0.00 | 0.00 | 0.00 | 49 | 997.5 |
| 20260504211504 | 71 | 217 | 6.1 | 12.2 | 0.00 | 0.00 | 0.00 | 49 | 997.5 |
| 20260504211403 | 71 | 217 | 6.1 | 12.2 | 0.00 | 0.00 | 0.00 | 50 | 997.5 |
| 20260504211303 | 71 | 215 | 6.1 | 12.2 | 0.00 | 0.00 | 0.00 | 50 | 997.5 |
| 20260504211203 | 71 | 216 | 6.1 | 14.8 | 0.00 | 0.00 | 0.00 | 49 | 997.5 |
| 20260504211104 | 71 | 217 | 6.1 | 14.8 | 0.00 | 0.00 | 0.00 | 49 | 997.6 |
| 20260504211025 | 71 | 216 | 6.1 | 14.8 | 0.00 | 0.00 | 0.00 | 49 | 997.6 |
| 20260504210924 | 71 | 214 | 6.1 | 14.8 | 0.00 | 0.00 | 0.00 | 50 | 997.7 |
| 20260504210824 | 71 | 209 | 6.1 | 14.8 | 0.00 | 0.00 | 0.00 | 49 | 997.7 |
| 20260504210703 | 71 | 207 | 6.1 | 14.8 | 0.00 | 0.00 | 0.00 | 49 | 997.6 |
| 20260504210604 | 71 | 211 | 6.1 | 14.8 | 0.00 | 0.00 | 0.00 | 50 | 997.6 |
| 20260504210504 | 71 | 212 | 6.1 | 14.8 | 0.00 | 0.00 | 0.00 | 50 | 997.6 |
| 20260504210403 | 71 | 209 | 6.1 | 14.8 | 0.00 | 0.00 | 0.00 | 50 | 997.6 |
| 20260504210324 | 71 | 211 | 6.1 | 14.8 | 0.00 | 0.00 | 0.00 | 49 | 997.6 |
| 20260504210204 | 71 | 206 | 6.1 | 13.0 | 0.00 | 0.00 | 0.00 | 50 | 997.7 |
| 20260504210124 | 71 | 206 | 6.1 | 13.0 | 0.00 | 0.00 | 0.00 | 50 | 997.7 |
| 20260504210004 | 71 | 211 | 6.1 | 13.0 | 0.00 | 0.00 | 0.00 | 50 | 997.7 |
| 20260504205903 | 72 | 213 | 6.1 | 13.0 | 0.00 | 0.00 | 0.00 | 50 | 997.7 |
| 20260504205803 | 72 | 219 | 5.2 | 12.2 | 0.00 | 0.00 | 0.00 | 51 | 997.7 |
| 20260504205703 | 71 | 219 | 6.1 | 12.2 | 0.00 | 0.00 | 0.00 | 52 | 997.7 |
| 20260504205603 | 71 | 218 | 6.1 | 13.9 | 0.00 | 0.00 | 0.00 | 52 | 997.8 |
| 20260504205504 | 71 | 216 | 6.1 | 13.9 | 0.00 | 0.00 | 0.00 | 51 | 997.8 |
| 20260504205404 | 71 | 214 | 6.1 | 13.9 | 0.00 | 0.00 | 0.00 | 52 | 997.8 |
| 20260504205304 | 71 | 212 | 6.1 | 13.9 | 0.00 | 0.00 | 0.00 | 52 | 997.9 |
| 20260504205203 | 71 | 215 | 6.1 | 13.9 | 0.00 | 0.00 | 0.00 | 52 | 997.9 |
| 20260504205103 | 71 | 215 | 6.1 | 13.9 | 0.00 | 0.00 | 0.00 | 51 | 997.9 |
| 20260504205003 | 71 | 214 | 6.1 | 13.9 | 0.00 | 0.00 | 0.00 | 52 | 997.9 |
| 20260504204903 | 71 | 214 | 6.1 | 13.9 | 0.00 | 0.00 | 0.00 | 52 | 997.9 |
| 20260504204804 | 71 | 214 | 6.1 | 13.9 | 0.00 | 0.00 | 0.00 | 52 | 997.9 |
| 20260504204703 | 71 | 218 | 6.1 | 13.9 | 0.00 | 0.00 | 0.00 | 52 | 997.9 |
| 20260504204624 | 71 | 219 | 6.1 | 13.0 | 0.00 | 0.00 | 0.00 | 52 | 998.0 |
| 20260504204503 | 71 | 219 | 5.2 | 15.6 | 0.00 | 0.00 | 0.00 | 52 | 997.9 |
| 20260504204404 | 71 | 226 | 5.2 | 15.6 | 0.00 | 0.00 | 0.00 | 53 | 997.9 |
| 20260504204303 | 71 | 226 | 6.1 | 15.6 | 0.00 | 0.00 | 0.00 | 53 | 997.9 |
| 20260504204204 | 71 | 223 | 6.1 | 15.6 | 0.00 | 0.00 | 0.00 | 53 | 997.9 |
| 20260504204104 | 71 | 225 | 6.1 | 15.6 | 0.00 | 0.00 | 0.00 | 53 | 997.9 |
| 20260504204024 | 71 | 224 | 6.1 | 15.6 | 0.00 | 0.00 | 0.00 | 53 | 998.0 |
| 20260504203903 | 70 | 223 | 6.1 | 15.6 | 0.00 | 0.00 | 0.00 | 53 | 998.0 |
| 20260504203804 | 70 | 219 | 6.1 | 15.6 | 0.00 | 0.00 | 0.00 | 53 | 998.0 |
| 20260504203703 | 70 | 217 | 6.1 | 15.6 | 0.00 | 0.00 | 0.00 | 53 | 998.0 |
| 20260504203624 | 70 | 216 | 6.1 | 15.6 | 0.00 | 0.00 | 0.00 | 53 | 998.0 |
| 20260504203503 | 70 | 216 | 7.0 | 14.8 | 0.00 | 0.00 | 0.00 | 53 | 998.0 |
| 20260504203403 | 70 | 211 | 7.0 | 15.6 | 0.00 | 0.00 | 0.00 | 53 | 998.0 |
| 20260504203303 | 70 | 208 | 6.1 | 15.6 | 0.00 | 0.00 | 0.00 | 53 | 998.0 |
| 20260504203203 | 70 | 210 | 6.1 | 15.6 | 0.00 | 0.00 | 0.00 | 53 | 998.0 |
| 20260504203103 | 70 | 206 | 6.1 | 15.6 | 0.00 | 0.00 | 0.00 | 53 | 998.0 |
| 20260504203004 | 70 | 205 | 6.1 | 15.6 | 0.00 | 0.00 | 0.00 | 53 | 998.1 |
| 20260504202924 | 70 | 206 | 6.1 | 15.6 | 0.00 | 0.00 | 0.00 | 53 | 998.1 |
| 20260504202824 | 70 | 206 | 6.1 | 15.6 | 0.00 | 0.00 | 0.00 | 54 | 998.1 |
| 20260504202703 | 70 | 206 | 6.1 | 15.6 | 0.00 | 0.00 | 0.00 | 54 | 998.2 |
| 20260504202603 | 70 | 205 | 6.1 | 15.6 | 0.00 | 0.00 | 0.00 | 53 | 998.2 |
| 20260504202504 | 70 | 211 | 6.1 | 15.6 | 0.00 | 0.00 | 0.00 | 54 | 998.2 |
| 20260504202424 | 69 | 214 | 6.1 | 15.6 | 0.00 | 0.00 | 0.00 | 54 | 998.2 |
| 20260504202304 | 69 | 216 | 6.1 | 13.0 | 0.00 | 0.00 | 0.00 | 54 | 998.2 |
| 20260504202204 | 69 | 221 | 6.1 | 13.0 | 0.00 | 0.00 | 0.00 | 54 | 998.2 |
| 20260504202103 | 69 | 224 | 6.1 | 13.0 | 0.00 | 0.00 | 0.00 | 54 | 998.2 |
| 20260504202003 | 69 | 223 | 6.1 | 13.0 | 0.00 | 0.00 | 0.00 | 54 | 998.3 |
| 20260504201903 | 69 | 226 | 6.1 | 13.0 | 0.00 | 0.00 | 0.00 | 55 | 998.3 |
| 20260504201803 | 69 | 227 | 6.1 | 13.0 | 0.00 | 0.00 | 0.00 | 54 | 998.3 |
| 20260504201703 | 69 | 227 | 6.1 | 13.0 | 0.00 | 0.00 | 0.00 | 55 | 998.4 |
| 20260504201603 | 69 | 227 | 6.1 | 13.0 | 0.00 | 0.00 | 0.00 | 55 | 998.4 |
| 20260504201503 | 69 | 226 | 6.1 | 13.0 | 0.00 | 0.00 | 0.00 | 55 | 998.4 |
| 20260504201424 | 69 | 228 | 6.1 | 15.6 | 0.00 | 0.00 | 0.00 | 54 | 998.4 |
| 20260504201324 | 69 | 224 | 6.1 | 15.6 | 0.00 | 0.00 | 0.00 | 54 | 998.3 |
| 20260504201203 | 69 | 220 | 5.2 | 15.6 | 0.00 | 0.00 | 0.00 | 55 | 998.3 |
| 20260504201104 | 69 | 221 | 6.1 | 15.6 | 0.00 | 0.00 | 0.00 | 55 | 998.3 |
| 20260504201004 | 69 | 220 | 6.1 | 15.6 | 0.00 | 0.00 | 0.00 | 55 | 998.4 |
| 20260504200924 | 69 | 222 | 6.1 | 15.6 | 0.00 | 0.00 | 0.00 | 55 | 998.4 |
| 20260504200803 | 68 | 221 | 6.1 | 15.6 | 0.00 | 0.00 | 0.00 | 55 | 998.3 |
| 20260504200703 | 68 | 222 | 6.1 | 15.6 | 0.00 | 0.00 | 0.00 | 55 | 998.3 |
| 20260504200603 | 68 | 223 | 6.1 | 15.6 | 0.00 | 0.00 | 0.00 | 55 | 998.3 |
| 20260504200503 | 69 | 224 | 6.1 | 15.6 | 0.00 | 0.00 | 0.00 | 55 | 998.3 |
| 20260504200403 | 69 | 225 | 5.2 | 14.8 | 0.00 | 0.00 | 0.00 | 54 | 998.4 |
| 20260504200303 | 69 | 230 | 6.1 | 13.9 | 0.00 | 0.00 | 0.00 | 55 | 998.4 |
| 20260504200203 | 68 | 233 | 6.1 | 13.9 | 0.00 | 0.00 | 0.00 | 55 | 998.3 |
| 20260504200125 | 68 | 229 | 6.1 | 13.9 | 0.00 | 0.00 | 0.00 | 55 | 998.3 |
| 20260504200003 | 68 | 232 | 7.0 | 17.4 | 0.00 | 0.00 | 0.00 | 55 | 998.4 |
| 20260504195903 | 68 | 233 | 7.0 | 17.4 | 0.00 | 0.00 | 0.00 | 55 | 998.5 |
| 20260504195803 | 68 | 233 | 7.0 | 18.2 | 0.00 | 0.00 | 0.00 | 55 | 998.5 |
| 20260504195704 | 68 | 231 | 7.0 | 18.2 | 0.00 | 0.00 | 0.00 | 55 | 998.5 |
| 20260504195604 | 68 | 230 | 7.0 | 18.2 | 0.00 | 0.00 | 0.00 | 55 | 998.4 |
| 20260504195503 | 68 | 227 | 7.0 | 18.2 | 0.00 | 0.00 | 0.00 | 54 | 998.4 |
| 20260504195403 | 68 | 224 | 7.0 | 18.2 | 0.00 | 0.00 | 0.00 | 54 | 998.6 |
| 20260504195304 | 68 | 222 | 7.0 | 18.2 | 0.00 | 0.00 | 0.00 | 54 | 998.6 |
| 20260504195224 | 68 | 220 | 7.0 | 18.2 | 0.00 | 0.00 | 0.00 | 54 | 998.5 |
| 20260504195124 | 68 | 221 | 7.0 | 18.2 | 0.00 | 0.00 | 0.00 | 54 | 998.5 |
| 20260504195003 | 68 | 217 | 7.0 | 18.2 | 0.00 | 0.00 | 0.00 | 54 | 998.7 |
| 20260504194903 | 68 | 215 | 7.0 | 18.2 | 0.00 | 0.00 | 0.00 | 54 | 998.7 |
| 20260504194803 | 68 | 216 | 7.0 | 17.4 | 0.00 | 0.00 | 0.00 | 54 | 998.7 |
| 20260504194703 | 68 | 216 | 7.0 | 18.2 | 0.00 | 0.00 | 0.00 | 54 | 998.7 |
| 20260504194624 | 68 | 216 | 7.0 | 18.2 | 0.00 | 0.00 | 0.00 | 54 | 998.7 |
| 20260504194507 | 68 | 218 | 7.0 | 18.2 | 0.00 | 0.00 | 0.00 | 54 | 998.7 |
| 20260504194428 | 68 | 218 | 7.0 | 18.2 | 0.00 | 0.00 | 0.00 | 54 | 998.7 |
| 20260504194307 | 68 | 221 | 6.1 | 18.2 | 0.00 | 0.00 | 0.00 | 53 | 998.6 |
| 20260504194207 | 68 | 218 | 6.1 | 18.2 | 0.00 | 0.00 | 0.00 | 53 | 998.6 |
| 20260504194106 | 69 | 220 | 6.1 | 18.2 | 0.00 | 0.00 | 0.00 | 53 | 998.7 |
| 20260504194006 | 69 | 225 | 6.1 | 18.2 | 0.00 | 0.00 | 0.00 | 53 | 998.7 |
| 20260504193906 | 69 | 223 | 6.1 | 18.2 | 0.00 | 0.00 | 0.00 | 53 | 998.9 |
| 20260504193807 | 69 | 225 | 6.1 | 18.2 | 0.00 | 0.00 | 0.00 | 53 | 998.7 |
| 20260504193706 | 69 | 225 | 6.1 | 16.5 | 0.00 | 0.00 | 0.00 | 53 | 998.7 |
| 20260504193606 | 69 | 224 | 6.1 | 16.5 | 0.00 | 0.00 | 0.00 | 53 | 998.7 |
| 20260504193507 | 69 | 221 | 6.1 | 16.5 | 0.00 | 0.00 | 0.00 | 53 | 998.7 |
| 20260504193427 | 69 | 221 | 6.1 | 16.5 | 0.00 | 0.00 | 0.00 | 54 | 998.7 |
| 20260504193307 | 68 | 218 | 6.1 | 16.5 | 0.00 | 0.00 | 0.00 | 54 | 998.7 |
| 20260504193206 | 68 | 223 | 6.1 | 16.5 | 0.00 | 0.00 | 0.00 | 54 | 998.7 |
| 20260504193106 | 68 | 222 | 6.1 | 16.5 | 0.00 | 0.00 | 0.00 | 53 | 998.8 |
| 20260504193028 | 68 | 220 | 6.1 | 16.5 | 0.00 | 0.00 | 0.00 | 53 | 998.8 |
| 20260504192928 | 68 | 218 | 6.1 | 15.6 | 0.00 | 0.00 | 0.00 | 53 | 998.7 |
| 20260504192828 | 69 | 215 | 6.1 | 13.0 | 0.00 | 0.00 | 0.00 | 53 | 998.6 |
| 20260504192706 | 69 | 218 | 6.1 | 13.0 | 0.00 | 0.00 | 0.00 | 53 | 998.6 |
| 20260504192606 | 69 | 220 | 6.1 | 13.0 | 0.00 | 0.00 | 0.00 | 53 | 998.7 |
| 20260504192506 | 69 | 223 | 6.1 | 13.0 | 0.00 | 0.00 | 0.00 | 53 | 998.7 |
| 20260504192406 | 68 | 224 | 6.1 | 13.0 | 0.00 | 0.00 | 0.00 | 54 | 998.7 |
| 20260504192307 | 68 | 227 | 6.1 | 13.0 | 0.00 | 0.00 | 0.00 | 54 | 998.7 |
| 20260504192207 | 68 | 226 | 6.1 | 13.0 | 0.00 | 0.00 | 0.00 | 54 | 998.7 |
| 20260504192128 | 68 | 224 | 6.1 | 13.0 | 0.00 | 0.00 | 0.00 | 54 | 998.7 |
| 20260504192006 | 68 | 224 | 6.1 | 13.0 | 0.00 | 0.00 | 0.00 | 53 | 998.7 |
| 20260504191906 | 68 | 227 | 6.1 | 13.0 | 0.00 | 0.00 | 0.00 | 53 | 998.7 |
| 20260504191827 | 68 | 228 | 6.1 | 13.0 | 0.00 | 0.00 | 0.00 | 53 | 998.8 |
| 20260504191706 | 68 | 225 | 6.1 | 13.0 | 0.00 | 0.00 | 0.00 | 53 | 998.8 |
| 20260504191607 | 68 | 223 | 6.1 | 13.0 | 0.00 | 0.00 | 0.00 | 53 | 998.8 |
| 20260504191527 | 68 | 221 | 6.1 | 13.0 | 0.00 | 0.00 | 0.00 | 54 | 998.8 |
| 20260504191406 | 68 | 217 | 6.1 | 13.0 | 0.00 | 0.00 | 0.00 | 53 | 998.7 |
| 20260504191327 | 67 | 217 | 6.1 | 13.0 | 0.00 | 0.00 | 0.00 | 53 | 998.7 |
| 20260504191206 | 67 | 218 | 7.0 | 13.0 | 0.00 | 0.00 | 0.00 | 53 | 998.7 |
| 20260504191127 | 67 | 218 | 7.0 | 13.9 | 0.00 | 0.00 | 0.00 | 53 | 998.7 |
| 20260504191007 | 67 | 217 | 6.1 | 13.9 | 0.00 | 0.00 | 0.00 | 53 | 998.8 |
| 20260504190906 | 67 | 214 | 6.1 | 13.9 | 0.00 | 0.00 | 0.00 | 53 | 998.8 |
| 20260504190807 | 67 | 214 | 6.1 | 13.9 | 0.00 | 0.00 | 0.00 | 53 | 998.8 |
| 20260504190707 | 67 | 213 | 6.1 | 13.9 | 0.00 | 0.00 | 0.00 | 53 | 998.8 |
| 20260504190606 | 67 | 210 | 6.1 | 13.9 | 0.00 | 0.00 | 0.00 | 53 | 998.8 |
| 20260504190506 | 67 | 210 | 6.1 | 13.9 | 0.00 | 0.00 | 0.00 | 53 | 998.8 |
| 20260504190427 | 67 | 210 | 6.1 | 13.9 | 0.00 | 0.00 | 0.00 | 52 | 998.8 |
| 20260504190307 | 67 | 205 | 6.1 | 13.9 | 0.00 | 0.00 | 0.00 | 52 | 998.8 |
| 20260504190206 | 67 | 201 | 6.1 | 15.6 | 0.00 | 0.00 | 0.00 | 52 | 998.8 |
| 20260504190127 | 67 | 201 | 6.1 | 15.6 | 0.00 | 0.00 | 0.00 | 52 | 998.8 |
| 20260504190007 | 67 | 201 | 6.1 | 15.6 | 0.00 | 0.00 | 0.00 | 52 | 998.8 |
| 20260504185906 | 67 | 201 | 6.1 | 15.6 | 0.00 | 0.00 | 0.00 | 52 | 998.8 |
| 20260504185807 | 67 | 198 | 6.1 | 15.6 | 0.00 | 0.00 | 0.00 | 52 | 999.0 |
| 20260504185706 | 67 | 201 | 6.1 | 15.6 | 0.00 | 0.00 | 0.00 | 52 | 998.9 |
| 20260504185607 | 67 | 207 | 6.1 | 15.6 | 0.00 | 0.00 | 0.00 | 52 | 998.9 |
| 20260504185506 | 66 | 208 | 6.1 | 15.6 | 0.00 | 0.00 | 0.00 | 52 | 998.9 |
| 20260504185407 | 66 | 208 | 6.1 | 15.6 | 0.00 | 0.00 | 0.00 | 52 | 998.9 |
| 20260504185306 | 66 | 212 | 5.2 | 15.6 | 0.00 | 0.00 | 0.00 | 51 | 998.9 |
| 20260504185207 | 66 | 213 | 5.2 | 14.8 | 0.00 | 0.00 | 0.00 | 51 | 999.0 |
| 20260504185107 | 66 | 216 | 5.2 | 14.8 | 0.00 | 0.00 | 0.00 | 51 | 999.0 |
| 20260504185007 | 67 | 221 | 5.2 | 13.0 | 0.00 | 0.00 | 0.00 | 51 | 998.9 |
| 20260504184906 | 67 | 222 | 6.1 | 13.0 | 0.00 | 0.00 | 0.00 | 50 | 999.0 |
| 20260504184806 | 67 | 225 | 6.1 | 13.0 | 0.00 | 0.00 | 0.00 | 50 | 999.0 |
| 20260504184728 | 67 | 225 | 6.1 | 13.0 | 0.00 | 0.00 | 0.00 | 50 | 999.0 |
| 20260504184607 | 67 | 224 | 6.1 | 13.0 | 0.00 | 0.00 | 0.00 | 51 | 999.0 |
| 20260504184506 | 66 | 224 | 6.1 | 13.0 | 0.00 | 0.00 | 0.00 | 50 | 999.0 |
| 20260504184406 | 66 | 226 | 6.1 | 12.2 | 0.00 | 0.00 | 0.00 | 51 | 999.0 |
| 20260504184306 | 66 | 222 | 6.1 | 12.2 | 0.00 | 0.00 | 0.00 | 50 | 999.0 |
| 20260504184206 | 66 | 228 | 6.1 | 14.8 | 0.00 | 0.00 | 0.00 | 50 | 999.1 |
| 20260504184107 | 66 | 227 | 6.1 | 14.8 | 0.00 | 0.00 | 0.00 | 51 | 999.1 |
| 20260504184027 | 67 | 225 | 6.1 | 14.8 | 0.00 | 0.00 | 0.00 | 50 | 999.1 |
| 20260504183928 | 67 | 223 | 5.2 | 14.8 | 0.00 | 0.00 | 0.00 | 50 | 999.1 |
| 20260504183806 | 67 | 225 | 5.2 | 17.4 | 0.00 | 0.00 | 0.00 | 52 | 999.1 |
| 20260504183706 | 66 | 225 | 5.2 | 17.4 | 0.00 | 0.00 | 0.00 | 51 | 999.1 |
| 20260504183627 | 66 | 222 | 5.2 | 17.4 | 0.00 | 0.00 | 0.00 | 52 | 999.1 |
| 20260504183506 | 66 | 223 | 5.2 | 17.4 | 0.00 | 0.00 | 0.00 | 52 | 999.2 |
| 20260504183427 | 66 | 219 | 5.2 | 17.4 | 0.00 | 0.00 | 0.00 | 51 | 999.3 |
| 20260504183306 | 66 | 223 | 5.2 | 17.4 | 0.00 | 0.00 | 0.00 | 52 | 999.3 |
| 20260504183206 | 66 | 218 | 5.2 | 17.4 | 0.00 | 0.00 | 0.00 | 53 | 999.3 |
| 20260504183106 | 66 | 216 | 5.2 | 17.4 | 0.00 | 0.00 | 0.00 | 53 | 999.2 |
| 20260504183007 | 66 | 219 | 5.2 | 17.4 | 0.00 | 0.00 | 0.00 | 52 | 999.2 |
| 20260504182906 | 66 | 219 | 6.1 | 15.6 | 0.00 | 0.00 | 0.00 | 52 | 999.3 |
| 20260504182806 | 66 | 222 | 6.1 | 15.6 | 0.00 | 0.00 | 0.00 | 53 | 999.3 |
| 20260504182706 | 66 | 219 | 6.1 | 15.6 | 0.00 | 0.00 | 0.00 | 53 | 999.2 |
| 20260504182606 | 66 | 219 | 6.1 | 15.6 | 0.00 | 0.00 | 0.00 | 52 | 999.2 |
| 20260504182507 | 66 | 220 | 6.1 | 15.6 | 0.00 | 0.00 | 0.00 | 52 | 999.2 |
| 20260504182427 | 66 | 224 | 6.1 | 15.6 | 0.00 | 0.00 | 0.00 | 51 | 999.3 |
| 20260504182306 | 66 | 224 | 6.1 | 15.6 | 0.00 | 0.00 | 0.00 | 52 | 999.1 |
| 20260504182206 | 66 | 225 | 6.1 | 15.6 | 0.00 | 0.00 | 0.00 | 52 | 999.1 |
| 20260504182107 | 65 | 227 | 6.1 | 15.6 | 0.00 | 0.00 | 0.00 | 52 | 999.3 |
| 20260504182006 | 65 | 224 | 6.1 | 15.6 | 0.00 | 0.00 | 0.00 | 51 | 999.3 |
| 20260504181906 | 65 | 220 | 5.2 | 15.6 | 0.00 | 0.00 | 0.00 | 52 | 999.3 |
| 20260504181806 | 65 | 219 | 5.2 | 11.3 | 0.00 | 0.00 | 0.00 | 52 | 999.3 |
| 20260504181706 | 65 | 221 | 5.2 | 11.3 | 0.00 | 0.00 | 0.00 | 52 | 999.3 |
| 20260504181607 | 65 | 221 | 5.2 | 10.4 | 0.00 | 0.00 | 0.00 | 52 | 999.3 |
| 20260504181507 | 65 | 222 | 5.2 | 10.4 | 0.00 | 0.00 | 0.00 | 52 | 999.3 |
| 20260504181406 | 65 | 220 | 5.2 | 10.4 | 0.00 | 0.00 | 0.00 | 53 | 999.4 |
| 20260504181327 | 65 | 220 | 5.2 | 10.4 | 0.00 | 0.00 | 0.00 | 52 | 999.4 |
| 20260504181206 | 65 | 219 | 5.2 | 10.4 | 0.00 | 0.00 | 0.00 | 53 | 999.3 |
| 20260504181106 | 65 | 220 | 5.2 | 10.4 | 0.00 | 0.00 | 0.00 | 53 | 999.3 |
| 20260504181028 | 65 | 221 | 5.2 | 11.3 | 0.00 | 0.00 | 0.00 | 53 | 999.3 |
| 20260504180906 | 65 | 218 | 6.1 | 13.0 | 0.00 | 0.00 | 0.00 | 52 | 999.4 |
| 20260504180806 | 65 | 217 | 6.1 | 13.0 | 0.00 | 0.00 | 0.00 | 52 | 999.3 |
| 20260504180727 | 65 | 217 | 6.1 | 13.0 | 0.00 | 0.00 | 0.00 | 53 | 999.3 |
| 20260504180606 | 65 | 217 | 6.1 | 13.0 | 0.00 | 0.00 | 0.00 | 53 | 999.4 |
| 20260504180507 | 65 | 213 | 5.2 | 13.0 | 0.00 | 0.00 | 0.00 | 53 | 999.5 |
| 20260504180406 | 65 | 212 | 5.2 | 13.0 | 0.00 | 0.00 | 0.00 | 53 | 999.5 |
| 20260504180306 | 65 | 211 | 5.2 | 13.0 | 0.00 | 0.00 | 0.00 | 53 | 999.4 |
| 20260504180206 | 65 | 215 | 6.1 | 13.0 | 0.00 | 0.00 | 0.00 | 52 | 999.4 |
| 20260504180106 | 65 | 217 | 5.2 | 13.0 | 0.00 | 0.00 | 0.00 | 52 | 999.5 |
| 20260504180006 | 65 | 213 | 5.2 | 13.0 | 0.00 | 0.00 | 0.00 | 51 | 999.5 |
| 20260504175906 | 65 | 219 | 5.2 | 11.3 | 0.00 | 0.00 | 0.00 | 51 | 999.5 |
| 20260504175807 | 65 | 219 | 5.2 | 11.3 | 0.00 | 0.00 | 0.00 | 51 | 999.5 |
| 20260504175706 | 66 | 218 | 5.2 | 11.3 | 0.00 | 0.00 | 0.00 | 51 | 999.5 |
| 20260504175606 | 65 | 218 | 4.3 | 11.3 | 0.00 | 0.00 | 0.00 | 51 | 999.4 |
| 20260504175527 | 65 | 219 | 4.3 | 11.3 | 0.00 | 0.00 | 0.00 | 52 | 999.4 |
| 20260504175406 | 65 | 221 | 5.2 | 11.3 | 0.00 | 0.00 | 0.00 | 52 | 999.5 |
| 20260504175306 | 65 | 221 | 5.2 | 11.3 | 0.00 | 0.00 | 0.00 | 52 | 999.4 |
| 20260504175206 | 65 | 217 | 4.3 | 11.3 | 0.00 | 0.00 | 0.00 | 52 | 999.4 |
| 20260504175127 | 65 | 213 | 4.3 | 9.6 | 0.00 | 0.00 | 0.00 | 52 | 999.4 |
| 20260504175006 | 65 | 220 | 4.3 | 9.6 | 0.00 | 0.00 | 0.00 | 50 | 999.4 |
| 20260504174906 | 65 | 219 | 4.3 | 9.6 | 0.00 | 0.00 | 0.00 | 52 | 999.4 |
| 20260504174806 | 65 | 222 | 4.3 | 9.6 | 0.00 | 0.00 | 0.00 | 52 | 999.5 |
| 20260504174706 | 65 | 220 | 4.3 | 10.4 | 0.00 | 0.00 | 0.00 | 52 | 999.4 |
| 20260504174606 | 65 | 221 | 4.3 | 10.4 | 0.00 | 0.00 | 0.00 | 52 | 999.4 |
| 20260504174506 | 65 | 219 | 4.3 | 10.4 | 0.00 | 0.00 | 0.00 | 51 | 999.4 |
| 20260504174406 | 65 | 217 | 4.3 | 10.4 | 0.00 | 0.00 | 0.00 | 51 | 999.4 |
| 20260504174306 | 65 | 216 | 4.3 | 10.4 | 0.00 | 0.00 | 0.00 | 51 | 999.5 |
| 20260504174227 | 65 | 218 | 4.3 | 10.4 | 0.00 | 0.00 | 0.00 | 52 | 999.5 |
| 20260504174106 | 65 | 223 | 4.3 | 11.3 | 0.00 | 0.00 | 0.00 | 52 | 999.4 |
| 20260504174006 | 64 | 219 | 5.2 | 13.0 | 0.00 | 0.00 | 0.00 | 51 | 999.6 |
| 20260504173906 | 64 | 214 | 4.3 | 13.0 | 0.00 | 0.00 | 0.00 | 52 | 999.6 |
| 20260504173827 | 64 | 213 | 4.3 | 13.0 | 0.00 | 0.00 | 0.00 | 51 | 999.5 |
| 20260504173706 | 64 | 216 | 4.3 | 13.0 | 0.00 | 0.00 | 0.00 | 51 | 999.5 |
| 20260504173606 | 64 | 217 | 4.3 | 13.0 | 0.00 | 0.00 | 0.00 | 51 | 999.5 |
| 20260504173506 | 64 | 217 | 4.3 | 13.0 | 0.00 | 0.00 | 0.00 | 52 | 999.5 |
| 20260504173406 | 64 | 220 | 5.2 | 13.0 | 0.00 | 0.00 | 0.00 | 52 | 999.5 |
| 20260504173327 | 64 | 220 | 5.2 | 13.0 | 0.00 | 0.00 | 0.00 | 52 | 999.6 |
| 20260504173206 | 64 | 219 | 5.2 | 13.0 | 0.00 | 0.00 | 0.00 | 50 | 999.6 |
| 20260504173106 | 64 | 214 | 5.2 | 13.0 | 0.00 | 0.00 | 0.00 | 51 | 999.6 |
| 20260504173006 | 64 | 211 | 4.3 | 11.3 | 0.00 | 0.00 | 0.00 | 51 | 999.6 |
| 20260504172906 | 64 | 206 | 5.2 | 11.3 | 0.00 | 0.00 | 0.00 | 51 | 999.6 |
| 20260504172806 | 64 | 209 | 4.3 | 11.3 | 0.00 | 0.00 | 0.00 | 51 | 999.6 |
| 20260504172706 | 64 | 208 | 4.3 | 11.3 | 0.00 | 0.00 | 0.00 | 51 | 999.6 |
| 20260504172607 | 64 | 207 | 5.2 | 11.3 | 0.00 | 0.00 | 0.00 | 53 | 999.6 |
| 20260504172506 | 63 | 207 | 5.2 | 11.3 | 0.00 | 0.00 | 0.00 | 53 | 999.7 |
| 20260504172406 | 63 | 201 | 4.3 | 10.4 | 0.00 | 0.00 | 0.00 | 53 | 999.6 |
| 20260504172306 | 63 | 202 | 5.2 | 12.2 | 0.00 | 0.00 | 0.00 | 53 | 999.6 |
| 20260504172206 | 63 | 204 | 5.2 | 12.2 | 0.00 | 0.00 | 0.00 | 53 | 999.7 |
| 20260504172106 | 63 | 205 | 5.2 | 12.2 | 0.00 | 0.00 | 0.00 | 53 | 999.7 |
| 20260504172006 | 63 | 210 | 5.2 | 12.2 | 0.00 | 0.00 | 0.00 | 53 | 999.7 |
| 20260504171907 | 63 | 216 | 5.2 | 12.2 | 0.00 | 0.00 | 0.00 | 55 | 999.8 |
| 20260504171806 | 63 | 214 | 5.2 | 12.2 | 0.00 | 0.00 | 0.00 | 54 | 999.8 |
| 20260504171706 | 63 | 217 | 5.2 | 12.2 | 0.00 | 0.00 | 0.00 | 54 | 999.8 |
| 20260504171606 | 63 | 220 | 5.2 | 12.2 | 0.00 | 0.00 | 0.00 | 55 | 999.9 |
| 20260504171507 | 62 | 223 | 6.1 | 12.2 | 0.00 | 0.00 | 0.00 | 55 | 999.9 |
| 20260504171407 | 62 | 229 | 6.1 | 15.6 | 0.00 | 0.00 | 0.00 | 54 | 1000.0 |
| 20260504171306 | 62 | 230 | 5.2 | 15.6 | 0.00 | 0.00 | 0.00 | 55 | 1000.0 |
| 20260504171227 | 62 | 228 | 5.2 | 15.6 | 0.00 | 0.00 | 0.00 | 55 | 1000.0 |
| 20260504171106 | 62 | 229 | 5.2 | 15.6 | 0.00 | 0.00 | 0.00 | 54 | 1000.0 |
| 20260504171006 | 62 | 228 | 5.2 | 15.6 | 0.00 | 0.00 | 0.00 | 54 | 1000.0 |
| 20260504170907 | 62 | 226 | 5.2 | 15.6 | 0.00 | 0.00 | 0.00 | 54 | 1000.0 |
| 20260504170806 | 62 | 226 | 5.2 | 15.6 | 0.00 | 0.00 | 0.00 | 54 | 1000.0 |
| 20260504170706 | 63 | 221 | 5.2 | 15.6 | 0.00 | 0.00 | 0.00 | 54 | 1000.0 |
| 20260504170606 | 63 | 221 | 5.2 | 15.6 | 0.00 | 0.00 | 0.00 | 55 | 1000.0 |
| 20260504170506 | 63 | 221 | 5.2 | 15.6 | 0.00 | 0.00 | 0.00 | 54 | 1000.0 |
| 20260504170427 | 63 | 217 | 5.2 | 11.3 | 0.00 | 0.00 | 0.00 | 54 | 1000.0 |
| 20260504170327 | 62 | 215 | 5.2 | 12.2 | 0.00 | 0.00 | 0.00 | 55 | 1000.0 |
| 20260504170206 | 62 | 215 | 5.2 | 12.2 | 0.00 | 0.00 | 0.00 | 55 | 1000.1 |
| 20260504170106 | 62 | 208 | 5.2 | 12.2 | 0.00 | 0.00 | 0.00 | 54 | 1000.2 |
| 20260504160406 | 62 | 228 | 5.2 | 10.4 | 0.00 | 0.00 | 0.00 | 55 | 1000.5 |
| 20260504160306 | 61 | 227 | 5.2 | 10.4 | 0.00 | 0.00 | 0.00 | 56 | 1000.5 |
| 20260504160227 | 61 | 224 | 5.2 | 10.4 | 0.00 | 0.00 | 0.00 | 55 | 1000.5 |
| 20260504160106 | 61 | 226 | 5.2 | 11.3 | 0.00 | 0.00 | 0.00 | 56 | 1000.5 |
| 20260504151127 | 60 | 231 | 3.5 | 9.6 | 0.00 | 0.00 | 0.00 | 60 | 1001.1 |
| 20260504151006 | 60 | 229 | 3.5 | 9.6 | 0.00 | 0.00 | 0.00 | 61 | 1001.0 |
| 20260504150906 | 60 | 230 | 3.5 | 9.6 | 0.00 | 0.00 | 0.00 | 60 | 1001.0 |
| 20260504150806 | 60 | 229 | 3.5 | 9.6 | 0.00 | 0.00 | 0.00 | 61 | 1001.0 |
| 20260504150706 | 60 | 229 | 3.5 | 9.6 | 0.00 | 0.00 | 0.00 | 61 | 1001.0 |
| 20260504150606 | 59 | 226 | 3.5 | 9.6 | 0.00 | 0.00 | 0.00 | 60 | 1001.0 |
| 20260504150527 | 59 | 222 | 3.5 | 9.6 | 0.00 | 0.00 | 0.00 | 61 | 1001.0 |
| 20260504150427 | 59 | 220 | 3.5 | 9.6 | 0.00 | 0.00 | 0.00 | 60 | 1001.2 |
| 20260504150306 | 59 | 222 | 3.5 | 9.6 | 0.00 | 0.00 | 0.00 | 60 | 1001.2 |
| 20260504150206 | 59 | 219 | 3.5 | 9.6 | 0.00 | 0.00 | 0.00 | 62 | 1001.2 |
| 20260504150106 | 59 | 225 | 3.5 | 9.6 | 0.00 | 0.00 | 0.00 | 63 | 1001.2 |
| 20260504141306 | 56 | 213 | 3.5 | 7.8 | 0.00 | 0.00 | 0.00 | 69 | 1001.5 |
| 20260504141205 | 57 | 216 | 3.5 | 7.8 | 0.00 | 0.00 | 0.00 | 69 | 1001.6 |
| 20260504141106 | 57 | 213 | 3.5 | 9.6 | 0.00 | 0.00 | 0.00 | 69 | 1001.6 |
| 20260504141027 | 57 | 208 | 3.5 | 9.6 | 0.00 | 0.00 | 0.00 | 69 | 1001.6 |
| 20260504140906 | 56 | 205 | 3.5 | 9.6 | 0.00 | 0.00 | 0.00 | 70 | 1001.7 |
| 20260504140806 | 56 | 200 | 3.5 | 9.6 | 0.00 | 0.00 | 0.00 | 69 | 1001.7 |
| 20260504140727 | 56 | 201 | 3.5 | 9.6 | 0.00 | 0.00 | 0.00 | 69 | 1001.7 |
| 20260504140605 | 56 | 203 | 2.6 | 9.6 | 0.00 | 0.00 | 0.00 | 69 | 1001.7 |
| 20260504140506 | 56 | 210 | 2.6 | 9.6 | 0.00 | 0.00 | 0.00 | 70 | 1001.7 |
| 20260504140406 | 56 | 210 | 3.5 | 9.6 | 0.00 | 0.00 | 0.00 | 70 | 1001.7 |
| 20260504140327 | 56 | 208 | 3.5 | 9.6 | 0.00 | 0.00 | 0.00 | 70 | 1001.7 |
| 20260504140206 | 56 | 199 | 3.5 | 9.6 | 0.00 | 0.00 | 0.00 | 69 | 1001.8 |
| 20260504140126 | 56 | 192 | 3.5 | 9.6 | 0.00 | 0.00 | 0.00 | 69 | 1001.7 |
| 20260504130805 | 54 | 209 | 3.5 | 8.7 | 0.00 | 0.00 | 0.00 | 75 | 1002.3 |
| 20260504130727 | 54 | 213 | 3.5 | 8.7 | 0.00 | 0.00 | 0.00 | 75 | 1002.4 |
| 20260504130606 | 54 | 212 | 3.5 | 8.7 | 0.00 | 0.00 | 0.00 | 75 | 1002.4 |
| 20260504130506 | 54 | 215 | 3.5 | 8.7 | 0.00 | 0.00 | 0.00 | 75 | 1002.4 |
| 20260504130405 | 53 | 212 | 3.5 | 8.7 | 0.00 | 0.00 | 0.00 | 75 | 1002.3 |
| 20260504130305 | 53 | 209 | 3.5 | 8.7 | 0.00 | 0.00 | 0.00 | 76 | 1002.3 |
| 20260504130206 | 53 | 208 | 3.5 | 8.7 | 0.00 | 0.00 | 0.00 | 75 | 1002.4 |
| 20260504130105 | 53 | 214 | 3.5 | 8.7 | 0.00 | 0.00 | 0.00 | 76 | 1002.4 |
| 20260504120305 | 50 | 219 | 2.6 | 9.6 | 0.00 | 0.00 | 0.00 | 84 | 1002.4 |
| 20260504120205 | 50 | 216 | 2.6 | 9.6 | 0.00 | 0.00 | 0.00 | 84 | 1002.4 |
| 20260504120106 | 50 | 211 | 2.6 | 9.6 | 0.00 | 0.00 | 0.00 | 84 | 1002.4 |
| 20260504110705 | 48 | 191 | 0.9 | 6.1 | 0.00 | 0.00 | 0.00 | 88 | 1001.9 |
| 20260504110605 | 48 | 193 | 0.9 | 6.1 | 0.00 | 0.00 | 0.00 | 88 | 1001.8 |
| 20260504110505 | 48 | 199 | 0.9 | 6.1 | 0.00 | 0.00 | 0.00 | 88 | 1001.8 |
| 20260504110405 | 47 | 195 | 0.9 | 6.1 | 0.00 | 0.00 | 0.00 | 88 | 1001.8 |
| 20260504110306 | 47 | 188 | 0.9 | 3.5 | 0.00 | 0.00 | 0.00 | 88 | 1001.8 |
| 20260504110206 | 47 | 189 | 0.9 | 3.5 | 0.00 | 0.00 | 0.00 | 88 | 1001.8 |
| 20260504110126 | 47 | 190 | 0.9 | 3.5 | 0.00 | 0.00 | 0.00 | 88 | 1001.8 |
| 20260504100605 | 47 | 0 | 0.0 | 0.9 | 0.00 | 0.00 | 0.00 | 87 | 1001.8 |
| 20260504100505 | 47 | 0 | 0.0 | 0.9 | 0.00 | 0.00 | 0.00 | 87 | 1001.8 |
| 20260504100426 | 47 | 0 | 0.0 | 0.9 | 0.00 | 0.00 | 0.00 | 87 | 1001.8 |
| 20260504100306 | 47 | 0 | 0.0 | 0.9 | 0.00 | 0.00 | 0.00 | 87 | 1001.8 |
| 20260504100205 | 47 | 0 | 0.0 | 0.9 | 0.00 | 0.00 | 0.00 | 87 | 1001.8 |
| 20260504100105 | 47 | 0 | 0.0 | 0.9 | 0.00 | 0.00 | 0.00 | 87 | 1001.9 |